Time,TemperatureF,DewpointF,PressureIn,WindDirection,WindDirectionDegrees,WindSpeedMPH,WindSpeedGustMPH,Humidity,HourlyPrecipIn,Conditions,Clouds,dailyrainin,SolarRadiationWatts/m^2,SoftwareType,DateUTC
2013-12-11 00:02:00,11.8,7.9,30.36,South,176,3.0,4.0,84,0.00,,,0.00,0,Wunderground v.1.15,2013-12-11 06:02:00,
2013-12-11 00:03:00,11.8,7.9,30.36,South,176,2.0,4.0,84,0.00,,,0.00,0,Wunderground v.1.15,2013-12-11 06:03:00,
2013-12-11 00:04:00,11.8,7.9,30.36,South,176,2.0,4.0,84,0.00,,,0.00,0,Wunderground v.1.15,2013-12-11 06:04:00,
2013-12-11 00:05:00,11.8,7.9,30.35,South,176,2.0,4.0,84,0.00,,,0.00,0,Wunderground v.1.15,2013-12-11 06:05:00,
2013-12-11 00:06:00,11.8,7.9,30.36,South,176,2.0,4.0,84,0.00,,,0.00,0,Wunderground v.1.15,2013-12-11 06:06:00,
2013-12-11 00:10:00,11.8,7.9,30.36,South,176,2.0,2.0,84,0.00,,,0.00,0,Wunderground v.1.15,2013-12-11 06:10:00,
2013-12-11 00:13:00,11.7,7.8,30.35,South,176,2.0,2.0,84,0.00,,,0.00,0,Wunderground v.1.15,2013-12-11 06:13:00,
2013-12-11 00:15:00,11.7,7.8,30.35,South,176,2.0,2.0,84,0.00,,,0.00,0,Wunderground v.1.15,2013-12-11 06:15:00,
2013-12-11 00:16:00,11.8,7.9,30.35,South,176,1.0,2.0,84,0.00,,,0.00,0,Wunderground v.1.15,2013-12-11 06:16:00,
2013-12-11 00:18:00,11.7,7.8,30.35,South,176,1.0,2.0,84,0.00,,,0.00,0,Wunderground v.1.15,2013-12-11 06:18:00,
2013-12-11 00:19:00,11.7,7.8,30.35,South,176,1.0,2.0,84,0.00,,,0.00,0,Wunderground v.1.15,2013-12-11 06:19:00,
2013-12-11 00:20:00,11.8,8.2,30.35,South,176,1.0,1.0,85,0.00,,,0.00,0,Wunderground v.1.15,2013-12-11 06:20:00,
2013-12-11 00:21:00,11.7,8.1,30.35,South,176,1.0,2.0,85,0.00,,,0.00,0,Wunderground v.1.15,2013-12-11 06:21:00,
2013-12-11 00:22:00,11.7,8.1,30.35,South,176,1.0,2.0,85,0.00,,,0.00,0,Wunderground v.1.15,2013-12-11 06:22:00,
2013-12-11 00:25:00,11.7,8.1,30.35,South,176,1.0,2.0,85,0.00,,,0.00,0,Wunderground v.1.15,2013-12-11 06:25:00,
2013-12-11 00:26:00,11.7,8.1,30.35,South,176,2.0,5.0,85,0.00,,,0.00,0,Wunderground v.1.15,2013-12-11 06:26:00,
2013-12-11 00:27:00,11.7,8.1,30.35,South,176,2.0,5.0,85,0.00,,,0.00,0,Wunderground v.1.15,2013-12-11 06:27:00,
2013-12-11 00:28:00,11.7,8.1,30.35,South,176,2.0,5.0,85,0.00,,,0.00,0,Wunderground v.1.15,2013-12-11 06:28:00,
2013-12-11 00:30:00,11.7,8.1,30.35,South,176,2.0,2.0,85,0.00,,,0.00,0,Wunderground v.1.15,2013-12-11 06:30:00,
2013-12-11 00:32:00,11.7,8.1,30.35,South,176,2.0,2.0,85,0.00,,,0.00,0,Wunderground v.1.15,2013-12-11 06:32:00,
2013-12-11 00:33:00,11.7,8.1,30.35,South,176,2.0,2.0,85,0.00,,,0.00,0,Wunderground v.1.15,2013-12-11 06:33:00,
2013-12-11 00:34:00,11.7,8.1,30.35,South,176,2.0,2.0,85,0.00,,,0.00,0,Wunderground v.1.15,2013-12-11 06:34:00,
2013-12-11 00:35:00,11.7,8.1,30.35,South,176,1.0,2.0,85,0.00,,,0.00,0,Wunderground v.1.15,2013-12-11 06:35:00,
2013-12-11 00:37:00,11.7,8.1,30.35,South,176,1.0,2.0,85,0.00,,,0.00,0,Wunderground v.1.15,2013-12-11 06:37:00,
2013-12-11 00:39:00,11.7,8.1,30.35,South,176,1.0,2.0,85,0.00,,,0.00,0,Wunderground v.1.15,2013-12-11 06:39:00,
2013-12-11 00:41:00,11.7,8.1,30.36,South,176,0.0,1.0,85,0.00,,,0.00,0,Wunderground v.1.15,2013-12-11 06:41:00,
2013-12-11 00:42:00,11.7,8.1,30.36,South,176,0.0,1.0,85,0.00,,,0.00,0,Wunderground v.1.15,2013-12-11 06:42:00,
2013-12-11 00:43:00,11.7,8.1,30.35,South,176,0.0,1.0,85,0.00,,,0.00,0,Wunderground v.1.15,2013-12-11 06:43:00,
2013-12-11 00:48:00,11.7,8.1,30.35,South,176,0.0,1.0,85,0.00,,,0.00,0,Wunderground v.1.15,2013-12-11 06:48:00,
2013-12-11 00:50:00,11.7,8.3,30.35,South,176,0.0,0.0,86,0.00,,,0.00,0,Wunderground v.1.15,2013-12-11 06:50:00,
2013-12-11 00:52:00,11.7,8.3,30.35,South,176,0.0,4.0,86,0.00,,,0.00,0,Wunderground v.1.15,2013-12-11 06:52:00,
2013-12-11 00:53:00,11.7,8.3,30.35,South,176,1.0,4.0,86,0.00,,,0.00,0,Wunderground v.1.15,2013-12-11 06:53:00,
2013-12-11 00:54:00,11.8,8.4,30.35,South,176,1.0,4.0,86,0.00,,,0.00,0,Wunderground v.1.15,2013-12-11 06:54:00,
2013-12-11 00:55:00,11.7,8.3,30.35,South,176,1.0,4.0,86,0.00,,,0.00,0,Wunderground v.1.15,2013-12-11 06:55:00,
2013-12-11 00:57:00,11.7,8.3,30.35,South,176,1.0,4.0,86,0.00,,,0.00,0,Wunderground v.1.15,2013-12-11 06:57:00,
2013-12-11 00:58:00,11.7,8.3,30.35,South,176,1.0,4.0,86,0.00,,,0.00,0,Wunderground v.1.15,2013-12-11 06:58:00,
2013-12-11 01:03:00,11.8,8.4,30.36,South,176,1.0,2.0,86,0.00,,,0.00,0,Wunderground v.1.15,2013-12-11 07:03:00,
2013-12-11 01:04:00,11.8,8.4,30.36,South,176,1.0,2.0,86,0.00,,,0.00,0,Wunderground v.1.15,2013-12-11 07:04:00,
2013-12-11 01:05:00,11.8,8.4,30.36,South,176,1.0,2.0,86,0.00,,,0.00,0,Wunderground v.1.15,2013-12-11 07:05:00,
2013-12-11 01:09:00,11.8,8.4,30.36,South,176,1.0,2.0,86,0.00,,,0.00,0,Wunderground v.1.15,2013-12-11 07:09:00,
2013-12-11 01:10:00,11.8,8.4,30.36,South,176,1.0,1.0,86,0.00,,,0.00,0,Wunderground v.1.15,2013-12-11 07:10:00,
2013-12-11 01:11:00,11.8,8.4,30.35,South,176,0.0,2.0,86,0.00,,,0.00,0,Wunderground v.1.15,2013-12-11 07:11:00,
2013-12-11 01:13:00,11.8,8.4,30.35,South,176,1.0,2.0,86,0.00,,,0.00,0,Wunderground v.1.15,2013-12-11 07:13:00,
2013-12-11 01:15:00,11.8,8.4,30.35,South,176,1.0,2.0,86,0.00,,,0.00,0,Wunderground v.1.15,2013-12-11 07:15:00,
2013-12-11 01:16:00,11.8,8.4,30.35,South,176,1.0,2.0,86,0.00,,,0.00,0,Wunderground v.1.15,2013-12-11 07:16:00,
2013-12-11 01:18:00,11.8,8.4,30.35,South,176,1.0,2.0,86,0.00,,,0.00,0,Wunderground v.1.15,2013-12-11 07:18:00,
2013-12-11 01:19:00,11.8,8.4,30.35,South,176,1.0,2.0,86,0.00,,,0.00,0,Wunderground v.1.15,2013-12-11 07:19:00,
2013-12-11 01:20:00,11.8,8.4,30.36,South,176,1.0,1.0,86,0.00,,,0.00,0,Wunderground v.1.15,2013-12-11 07:20:00,
2013-12-11 01:23:00,11.9,8.5,30.36,South,176,0.0,1.0,86,0.00,,,0.00,0,Wunderground v.1.15,2013-12-11 07:23:00,
2013-12-11 01:25:00,11.9,8.5,30.36,South,176,0.0,1.0,86,0.00,,,0.00,0,Wunderground v.1.15,2013-12-11 07:25:00,
2013-12-11 01:26:00,11.9,8.5,30.36,South,176,0.0,1.0,86,0.00,,,0.00,0,Wunderground v.1.15,2013-12-11 07:26:00,
2013-12-11 01:28:00,11.9,8.8,30.36,South,176,0.0,1.0,87,0.00,,,0.00,0,Wunderground v.1.15,2013-12-11 07:28:00,
2013-12-11 01:32:00,11.9,8.8,30.36,South,176,0.0,0.0,87,0.00,,,0.00,0,Wunderground v.1.15,2013-12-11 07:32:00,
2013-12-11 01:33:00,11.9,8.8,30.36,South,176,0.0,0.0,87,0.00,,,0.00,0,Wunderground v.1.15,2013-12-11 07:33:00,
2013-12-11 01:34:00,12.0,8.9,30.36,South,176,0.0,0.0,87,0.00,,,0.00,0,Wunderground v.1.15,2013-12-11 07:34:00,
2013-12-11 01:36:00,12.0,8.9,30.36,South,176,0.0,0.0,87,0.00,,,0.00,0,Wunderground v.1.15,2013-12-11 07:36:00,
2013-12-11 01:37:00,12.0,8.9,30.36,South,176,0.0,0.0,87,0.00,,,0.00,0,Wunderground v.1.15,2013-12-11 07:37:00,
2013-12-11 01:38:00,12.0,8.9,30.36,South,176,0.0,0.0,87,0.00,,,0.00,0,Wunderground v.1.15,2013-12-11 07:38:00,
2013-12-11 01:39:00,12.0,8.9,30.36,South,176,0.0,1.0,87,0.00,,,0.00,0,Wunderground v.1.15,2013-12-11 07:39:00,
2013-12-11 01:43:00,12.1,9.0,30.36,South,176,0.0,1.0,87,0.00,,,0.00,0,Wunderground v.1.15,2013-12-11 07:43:00,
2013-12-11 01:45:00,12.1,9.0,30.36,South,176,0.0,1.0,87,0.00,,,0.00,0,Wunderground v.1.15,2013-12-11 07:45:00,
2013-12-11 01:46:00,12.1,9.0,30.36,South,176,0.0,1.0,87,0.00,,,0.00,0,Wunderground v.1.15,2013-12-11 07:46:00,
2013-12-11 01:47:00,12.1,9.0,30.36,South,176,0.0,1.0,87,0.00,,,0.00,0,Wunderground v.1.15,2013-12-11 07:47:00,
2013-12-11 01:48:00,12.1,9.0,30.36,South,176,0.0,1.0,87,0.00,,,0.00,0,Wunderground v.1.15,2013-12-11 07:48:00,
2013-12-11 01:49:00,12.1,9.0,30.36,South,176,0.0,1.0,87,0.00,,,0.00,0,Wunderground v.1.15,2013-12-11 07:49:00,
2013-12-11 01:52:00,12.2,9.1,30.36,South,176,0.0,1.0,87,0.00,,,0.00,0,Wunderground v.1.15,2013-12-11 07:52:00,
2013-12-11 01:53:00,12.1,9.0,30.36,South,176,0.0,1.0,87,0.00,,,0.00,0,Wunderground v.1.15,2013-12-11 07:53:00,
2013-12-11 01:57:00,12.2,9.1,30.36,South,176,0.0,2.0,87,0.00,,,0.00,0,Wunderground v.1.15,2013-12-11 07:57:00,
2013-12-11 01:59:00,12.2,9.1,30.36,South,176,0.0,2.0,87,0.00,,,0.00,0,Wunderground v.1.15,2013-12-11 07:59:00,
2013-12-11 02:02:00,12.2,9.1,30.36,South,176,0.0,2.0,87,0.00,,,0.00,0,Wunderground v.1.15,2013-12-11 08:02:00,
2013-12-11 02:03:00,12.3,9.2,30.37,South,176,0.0,2.0,87,0.00,,,0.00,0,Wunderground v.1.15,2013-12-11 08:03:00,
2013-12-11 02:04:00,12.3,9.2,30.36,South,176,0.0,2.0,87,0.00,,,0.00,0,Wunderground v.1.15,2013-12-11 08:04:00,
2013-12-11 02:09:00,12.3,9.2,30.37,South,176,0.0,2.0,87,0.00,,,0.00,0,Wunderground v.1.15,2013-12-11 08:09:00,
2013-12-11 02:10:00,12.3,9.4,30.37,South,176,1.0,1.0,88,0.00,,,0.00,0,Wunderground v.1.15,2013-12-11 08:10:00,
2013-12-11 02:11:00,12.3,9.4,30.37,South,176,1.0,1.0,88,0.00,,,0.00,0,Wunderground v.1.15,2013-12-11 08:11:00,
2013-12-11 02:13:00,12.4,9.5,30.37,South,176,1.0,1.0,88,0.00,,,0.00,0,Wunderground v.1.15,2013-12-11 08:13:00,
2013-12-11 02:15:00,12.4,9.5,30.37,South,176,1.0,1.0,88,0.00,,,0.00,0,Wunderground v.1.15,2013-12-11 08:15:00,
2013-12-11 02:17:00,12.5,9.6,30.37,South,176,1.0,1.0,88,0.00,,,0.00,0,Wunderground v.1.15,2013-12-11 08:17:00,
2013-12-11 02:18:00,12.5,9.6,30.37,South,176,1.0,1.0,88,0.00,,,0.00,0,Wunderground v.1.15,2013-12-11 08:18:00,
2013-12-11 02:20:00,12.5,9.6,30.37,South,176,0.0,0.0,88,0.00,,,0.00,0,Wunderground v.1.15,2013-12-11 08:20:00,
2013-12-11 02:22:00,12.6,9.7,30.37,South,176,0.0,0.0,88,0.00,,,0.00,0,Wunderground v.1.15,2013-12-11 08:22:00,
2013-12-11 02:25:00,12.6,9.7,30.37,South,176,0.0,0.0,88,0.00,,,0.00,0,Wunderground v.1.15,2013-12-11 08:25:00,
2013-12-11 02:28:00,12.7,9.8,30.37,South,176,0.0,0.0,88,0.00,,,0.00,0,Wunderground v.1.15,2013-12-11 08:28:00,
2013-12-11 02:29:00,12.7,9.8,30.37,South,176,0.0,0.0,88,0.00,,,0.00,0,Wunderground v.1.15,2013-12-11 08:29:00,
2013-12-11 02:30:00,12.8,9.9,30.37,South,176,0.0,1.0,88,0.00,,,0.00,0,Wunderground v.1.15,2013-12-11 08:30:00,
2013-12-11 02:32:00,12.8,9.9,30.37,South,176,0.0,1.0,88,0.00,,,0.00,0,Wunderground v.1.15,2013-12-11 08:32:00,
2013-12-11 02:33:00,12.9,10.0,30.37,South,176,0.0,1.0,88,0.00,,,0.00,0,Wunderground v.1.15,2013-12-11 08:33:00,
2013-12-11 02:36:00,12.9,10.0,30.37,South,176,0.0,1.0,88,0.00,,,0.00,0,Wunderground v.1.15,2013-12-11 08:36:00,
2013-12-11 02:38:00,12.9,10.0,30.38,South,176,0.0,1.0,88,0.00,,,0.00,0,Wunderground v.1.15,2013-12-11 08:38:00,
2013-12-11 02:40:00,12.9,10.0,30.37,South,176,0.0,0.0,88,0.00,,,0.00,0,Wunderground v.1.15,2013-12-11 08:40:00,
2013-12-11 02:41:00,13.0,10.1,30.37,South,176,0.0,0.0,88,0.00,,,0.00,0,Wunderground v.1.15,2013-12-11 08:41:00,
2013-12-11 02:42:00,13.0,10.1,30.37,South,176,0.0,0.0,88,0.00,,,0.00,0,Wunderground v.1.15,2013-12-11 08:42:00,
2013-12-11 02:43:00,13.0,10.1,30.37,South,176,0.0,0.0,88,0.00,,,0.00,0,Wunderground v.1.15,2013-12-11 08:43:00,
2013-12-11 02:46:00,13.0,10.1,30.38,South,176,0.0,0.0,88,0.00,,,0.00,0,Wunderground v.1.15,2013-12-11 08:46:00,
2013-12-11 02:48:00,13.1,10.2,30.38,South,176,0.0,1.0,88,0.00,,,0.00,0,Wunderground v.1.15,2013-12-11 08:48:00,
2013-12-11 02:49:00,13.1,10.2,30.37,South,176,0.0,1.0,88,0.00,,,0.00,0,Wunderground v.1.15,2013-12-11 08:49:00,
2013-12-11 02:51:00,13.1,10.2,30.37,South,176,0.0,0.0,88,0.00,,,0.00,0,Wunderground v.1.15,2013-12-11 08:51:00,
2013-12-11 02:52:00,13.1,10.2,30.37,South,176,0.0,0.0,88,0.00,,,0.00,0,Wunderground v.1.15,2013-12-11 08:52:00,
2013-12-11 02:55:00,13.2,10.3,30.37,South,176,0.0,0.0,88,0.00,,,0.00,0,Wunderground v.1.15,2013-12-11 08:55:00,
2013-12-11 02:56:00,13.2,10.3,30.37,South,176,0.0,0.0,88,0.00,,,0.00,0,Wunderground v.1.15,2013-12-11 08:56:00,
2013-12-11 02:57:00,13.2,10.3,30.37,South,176,0.0,0.0,88,0.00,,,0.00,0,Wunderground v.1.15,2013-12-11 08:57:00,
2013-12-11 02:59:00,13.2,10.3,30.38,South,176,0.0,0.0,88,0.00,,,0.00,0,Wunderground v.1.15,2013-12-11 08:59:00,
2013-12-11 03:00:00,13.3,10.4,30.38,South,176,0.0,0.0,88,0.00,,,0.00,0,Wunderground v.1.15,2013-12-11 09:00:00,
2013-12-11 03:02:00,13.3,10.4,30.37,South,176,0.0,0.0,88,0.00,,,0.00,0,Wunderground v.1.15,2013-12-11 09:02:00,
2013-12-11 03:04:00,13.3,10.4,30.37,South,176,0.0,1.0,88,0.00,,,0.00,0,Wunderground v.1.15,2013-12-11 09:04:00,
2013-12-11 03:05:00,13.3,10.4,30.38,South,176,0.0,1.0,88,0.00,,,0.00,0,Wunderground v.1.15,2013-12-11 09:05:00,
2013-12-11 03:06:00,13.3,10.4,30.37,South,176,0.0,1.0,88,0.00,,,0.00,0,Wunderground v.1.15,2013-12-11 09:06:00,
2013-12-11 03:08:00,13.4,10.5,30.37,South,176,0.0,1.0,88,0.00,,,0.00,0,Wunderground v.1.15,2013-12-11 09:08:00,
2013-12-11 03:09:00,13.4,10.5,30.37,South,176,0.0,1.0,88,0.00,,,0.00,0,Wunderground v.1.15,2013-12-11 09:09:00,
2013-12-11 03:11:00,13.4,10.5,30.38,South,176,0.0,0.0,88,0.00,,,0.00,0,Wunderground v.1.15,2013-12-11 09:11:00,
2013-12-11 03:12:00,13.4,10.5,30.37,South,176,0.0,0.0,88,0.00,,,0.00,0,Wunderground v.1.15,2013-12-11 09:12:00,
2013-12-11 03:14:00,13.4,10.5,30.37,South,176,0.0,0.0,88,0.00,,,0.00,0,Wunderground v.1.15,2013-12-11 09:14:00,
2013-12-11 03:15:00,13.5,10.6,30.37,South,176,0.0,0.0,88,0.00,,,0.00,0,Wunderground v.1.15,2013-12-11 09:15:00,
2013-12-11 03:16:00,13.5,10.6,30.37,South,176,0.0,0.0,88,0.00,,,0.00,0,Wunderground v.1.15,2013-12-11 09:16:00,
2013-12-11 03:20:00,13.5,10.6,30.37,South,176,0.0,0.0,88,0.00,,,0.00,0,Wunderground v.1.15,2013-12-11 09:20:00,
2013-12-11 03:21:00,13.5,10.6,30.37,South,176,0.0,0.0,88,0.00,,,0.00,0,Wunderground v.1.15,2013-12-11 09:21:00,
2013-12-11 03:22:00,13.5,10.6,30.37,South,176,0.0,0.0,88,0.00,,,0.00,0,Wunderground v.1.15,2013-12-11 09:22:00,
2013-12-11 03:24:00,13.5,10.6,30.37,South,176,0.0,0.0,88,0.00,,,0.00,0,Wunderground v.1.15,2013-12-11 09:24:00,
2013-12-11 03:25:00,13.5,10.6,30.37,South,176,0.0,0.0,88,0.00,,,0.00,0,Wunderground v.1.15,2013-12-11 09:25:00,
2013-12-11 03:27:00,13.5,10.6,30.37,South,176,0.0,0.0,88,0.00,,,0.00,0,Wunderground v.1.15,2013-12-11 09:27:00,
2013-12-11 03:30:00,13.5,10.6,30.38,South,176,0.0,0.0,88,0.00,,,0.00,0,Wunderground v.1.15,2013-12-11 09:30:00,
2013-12-11 03:32:00,13.5,10.6,30.38,South,176,0.0,2.0,88,0.00,,,0.00,0,Wunderground v.1.15,2013-12-11 09:32:00,
2013-12-11 03:33:00,13.6,10.7,30.38,South,176,0.0,2.0,88,0.00,,,0.00,0,Wunderground v.1.15,2013-12-11 09:33:00,
2013-12-11 03:34:00,13.6,10.7,30.38,South,176,0.0,2.0,88,0.00,,,0.00,0,Wunderground v.1.15,2013-12-11 09:34:00,
2013-12-11 03:37:00,13.6,10.7,30.38,South,176,1.0,4.0,88,0.00,,,0.00,0,Wunderground v.1.15,2013-12-11 09:37:00,
2013-12-11 03:38:00,13.6,10.7,30.38,South,176,1.0,4.0,88,0.00,,,0.00,0,Wunderground v.1.15,2013-12-11 09:38:00,
2013-12-11 03:40:00,13.7,10.8,30.38,South,176,1.0,2.0,88,0.00,,,0.00,0,Wunderground v.1.15,2013-12-11 09:40:00,
2013-12-11 03:42:00,13.7,10.8,30.38,South,177,1.0,2.0,88,0.00,,,0.00,0,Wunderground v.1.15,2013-12-11 09:42:00,
2013-12-11 03:43:00,13.7,10.8,30.38,South,177,1.0,2.0,88,0.00,,,0.00,0,Wunderground v.1.15,2013-12-11 09:43:00,
2013-12-11 03:44:00,13.7,10.8,30.38,South,177,1.0,2.0,88,0.00,,,0.00,0,Wunderground v.1.15,2013-12-11 09:44:00,
2013-12-11 03:45:00,13.7,10.8,30.38,South,177,1.0,2.0,88,0.00,,,0.00,0,Wunderground v.1.15,2013-12-11 09:45:00,
2013-12-11 03:47:00,13.8,10.9,30.38,South,177,1.0,2.0,88,0.00,,,0.00,0,Wunderground v.1.15,2013-12-11 09:47:00,
2013-12-11 03:49:00,13.8,10.9,30.38,South,177,1.0,2.0,88,0.00,,,0.00,0,Wunderground v.1.15,2013-12-11 09:49:00,
2013-12-11 03:50:00,13.8,10.9,30.38,South,177,1.0,1.0,88,0.00,,,0.00,0,Wunderground v.1.15,2013-12-11 09:50:00,
2013-12-11 03:52:00,13.9,11.0,30.38,WNW,290,1.0,10.0,88,0.00,,,0.00,0,Wunderground v.1.15,2013-12-11 09:52:00,
2013-12-11 03:54:00,13.9,11.0,30.38,NW,304,2.0,10.0,88,0.00,,,0.00,0,Wunderground v.1.15,2013-12-11 09:54:00,
2013-12-11 03:55:00,13.9,11.0,30.39,WNW,295,2.0,10.0,88,0.00,,,0.00,0,Wunderground v.1.15,2013-12-11 09:55:00,
2013-12-11 03:57:00,13.9,11.0,30.39,WNW,282,3.0,10.0,88,0.00,,,0.00,0,Wunderground v.1.15,2013-12-11 09:57:00,
2013-12-11 03:58:00,13.9,11.0,30.39,West,265,4.0,10.0,88,0.00,,,0.00,0,Wunderground v.1.15,2013-12-11 09:58:00,
2013-12-11 03:59:00,13.8,10.9,30.39,NW,307,4.0,10.0,88,0.00,,,0.00,0,Wunderground v.1.15,2013-12-11 09:59:00,
2013-12-11 04:01:00,13.7,10.8,30.39,NW,317,6.0,6.0,88,0.00,,,0.00,0,Wunderground v.1.15,2013-12-11 10:01:00,
2013-12-11 04:03:00,13.6,10.7,30.39,NNW,327,6.0,6.0,88,0.00,,,0.00,0,Wunderground v.1.15,2013-12-11 10:03:00,
2013-12-11 04:05:00,13.5,10.6,30.39,NW,322,6.0,6.0,88,0.00,,,0.00,0,Wunderground v.1.15,2013-12-11 10:05:00,
2013-12-11 04:06:00,13.4,10.5,30.39,NW,309,6.0,7.0,88,0.00,,,0.00,0,Wunderground v.1.15,2013-12-11 10:06:00,
2013-12-11 04:08:00,13.3,10.4,30.40,North,355,5.0,7.0,88,0.00,,,0.00,0,Wunderground v.1.15,2013-12-11 10:08:00,
2013-12-11 04:11:00,13.2,10.1,30.40,NNW,328,5.0,6.0,87,0.00,,,0.00,0,Wunderground v.1.15,2013-12-11 10:11:00,
2013-12-11 04:12:00,13.1,10.0,30.40,NNW,331,5.0,6.0,87,0.00,,,0.00,0,Wunderground v.1.15,2013-12-11 10:12:00,
2013-12-11 04:13:00,13.0,9.9,30.40,NNW,328,5.0,6.0,87,0.00,,,0.00,0,Wunderground v.1.15,2013-12-11 10:13:00,
2013-12-11 04:14:00,13.0,9.9,30.40,NNW,328,5.0,6.0,87,0.00,,,0.00,0,Wunderground v.1.15,2013-12-11 10:14:00,
2013-12-11 04:17:00,12.8,9.7,30.40,NW,321,5.0,7.0,87,0.00,,,0.00,0,Wunderground v.1.15,2013-12-11 10:17:00,
2013-12-11 04:20:00,12.7,9.6,30.40,NNW,333,4.0,4.0,87,0.00,,,0.00,0,Wunderground v.1.15,2013-12-11 10:20:00,
2013-12-11 04:22:00,12.6,9.5,30.40,West,277,4.0,7.0,87,0.00,,,0.00,0,Wunderground v.1.15,2013-12-11 10:22:00,
2013-12-11 04:24:00,12.6,9.2,30.40,NNW,339,4.0,7.0,86,0.00,,,0.00,0,Wunderground v.1.15,2013-12-11 10:24:00,
2013-12-11 04:27:00,12.5,9.1,30.41,WNW,303,3.0,7.0,86,0.00,,,0.00,0,Wunderground v.1.15,2013-12-11 10:27:00,
2013-12-11 04:29:00,12.5,9.1,30.41,NNW,333,3.0,7.0,86,0.00,,,0.00,0,Wunderground v.1.15,2013-12-11 10:29:00,
2013-12-11 04:32:00,12.3,8.9,30.41,WNW,301,4.0,4.0,86,0.00,,,0.00,0,Wunderground v.1.15,2013-12-11 10:32:00,
2013-12-11 04:34:00,12.3,8.9,30.41,WNW,299,4.0,6.0,86,0.00,,,0.00,0,Wunderground v.1.15,2013-12-11 10:34:00,
2013-12-11 04:36:00,12.2,8.8,30.41,NNW,343,4.0,6.0,86,0.00,,,0.00,0,Wunderground v.1.15,2013-12-11 10:36:00,
2013-12-11 04:37:00,12.2,8.6,30.41,NW,312,4.0,6.0,85,0.00,,,0.00,0,Wunderground v.1.15,2013-12-11 10:37:00,
2013-12-11 04:38:00,12.1,8.5,30.41,WNW,296,4.0,7.0,85,0.00,,,0.00,0,Wunderground v.1.15,2013-12-11 10:38:00,
2013-12-11 04:40:00,12.1,8.5,30.41,WNW,297,4.0,4.0,85,0.00,,,0.00,0,Wunderground v.1.15,2013-12-11 10:40:00,
2013-12-11 04:42:00,11.9,8.3,30.41,NW,315,4.0,4.0,85,0.00,,,0.00,0,Wunderground v.1.15,2013-12-11 10:42:00,
2013-12-11 04:44:00,11.8,8.2,30.41,NW,315,3.0,5.0,85,0.00,,,0.00,0,Wunderground v.1.15,2013-12-11 10:44:00,
2013-12-11 04:47:00,11.7,7.8,30.41,WNW,292,4.0,6.0,84,0.00,,,0.00,0,Wunderground v.1.15,2013-12-11 10:47:00,
2013-12-11 04:49:00,11.5,7.6,30.42,NW,326,4.0,8.0,84,0.00,,,0.00,0,Wunderground v.1.15,2013-12-11 10:49:00,
2013-12-11 04:52:00,11.2,7.0,30.42,NNW,331,5.0,7.0,83,0.00,,,0.00,0,Wunderground v.1.15,2013-12-11 10:52:00,
2013-12-11 04:53:00,11.1,6.9,30.42,NNW,327,5.0,7.0,83,0.00,,,0.00,0,Wunderground v.1.15,2013-12-11 10:53:00,
2013-12-11 04:54:00,11.0,6.8,30.42,NNW,336,5.0,7.0,83,0.00,,,0.00,0,Wunderground v.1.15,2013-12-11 10:54:00,
2013-12-11 04:58:00,10.7,6.6,30.42,NW,323,5.0,7.0,83,0.00,,,0.00,0,Wunderground v.1.15,2013-12-11 10:58:00,
2013-12-11 04:59:00,10.6,6.2,30.42,NNW,333,4.0,7.0,82,0.00,,,0.00,0,Wunderground v.1.15,2013-12-11 10:59:00,
2013-12-11 05:00:00,10.5,6.1,30.43,WNW,290,4.0,7.0,82,0.00,,,0.00,0,Wunderground v.1.15,2013-12-11 11:00:00,
2013-12-11 05:01:00,10.4,6.0,30.43,NNW,336,4.0,7.0,82,0.00,,,0.00,0,Wunderground v.1.15,2013-12-11 11:01:00,
2013-12-11 05:02:00,10.3,5.9,30.43,NNW,334,4.0,7.0,82,0.00,,,0.00,0,Wunderground v.1.15,2013-12-11 11:02:00,
2013-12-11 05:04:00,10.1,5.7,30.43,NNW,338,4.0,7.0,82,0.00,,,0.00,0,Wunderground v.1.15,2013-12-11 11:04:00,
2013-12-11 05:07:00,9.9,5.5,30.43,NNW,340,4.0,7.0,82,0.00,,,0.00,0,Wunderground v.1.15,2013-12-11 11:07:00,
2013-12-11 05:09:00,9.7,5.0,30.44,NW,311,4.0,7.0,81,0.00,,,0.00,0,Wunderground v.1.15,2013-12-11 11:09:00,
2013-12-11 05:10:00,9.6,4.9,30.44,NW,320,4.0,5.0,81,0.00,,,0.00,0,Wunderground v.1.15,2013-12-11 11:10:00,
2013-12-11 05:11:00,9.5,4.8,30.44,NW,326,4.0,5.0,81,0.00,,,0.00,0,Wunderground v.1.15,2013-12-11 11:11:00,
2013-12-11 05:13:00,9.3,4.6,30.44,NNW,333,4.0,5.0,81,0.00,,,0.00,0,Wunderground v.1.15,2013-12-11 11:13:00,
2013-12-11 05:15:00,9.2,4.6,30.44,NW,311,4.0,5.0,81,0.00,,,0.00,0,Wunderground v.1.15,2013-12-11 11:15:00,
2013-12-11 05:16:00,9.1,4.5,30.44,WNW,295,4.0,5.0,81,0.00,,,0.00,0,Wunderground v.1.15,2013-12-11 11:16:00,
2013-12-11 05:17:00,9.0,4.1,30.44,NW,322,4.0,6.0,80,0.00,,,0.00,0,Wunderground v.1.15,2013-12-11 11:17:00,
2013-12-11 05:18:00,8.9,4.0,30.44,WNW,293,4.0,6.0,80,0.00,,,0.00,0,Wunderground v.1.15,2013-12-11 11:18:00,
2013-12-11 05:19:00,8.9,4.0,30.44,NNW,329,4.0,6.0,80,0.00,,,0.00,0,Wunderground v.1.15,2013-12-11 11:19:00,
2013-12-11 05:21:00,8.7,3.8,30.45,NW,319,3.0,4.0,80,0.00,,,0.00,0,Wunderground v.1.15,2013-12-11 11:21:00,
2013-12-11 05:23:00,8.5,3.3,30.45,North,355,4.0,6.0,79,0.00,,,0.00,0,Wunderground v.1.15,2013-12-11 11:23:00,
2013-12-11 05:24:00,8.4,3.2,30.45,NW,316,4.0,6.0,79,0.00,,,0.00,0,Wunderground v.1.15,2013-12-11 11:24:00,
2013-12-11 05:27:00,8.2,3.0,30.46,NW,307,3.0,6.0,79,0.00,,,0.00,0,Wunderground v.1.15,2013-12-11 11:27:00,
2013-12-11 05:28:00,8.1,2.9,30.46,NW,324,3.0,6.0,79,0.00,,,0.00,0,Wunderground v.1.15,2013-12-11 11:28:00,
2013-12-11 05:29:00,8.0,2.8,30.46,NW,320,4.0,6.0,79,0.00,,,0.00,0,Wunderground v.1.15,2013-12-11 11:29:00,
2013-12-11 05:31:00,7.6,2.4,30.46,North,5,4.0,7.0,79,0.00,,,0.00,0,Wunderground v.1.15,2013-12-11 11:31:00,
2013-12-11 05:34:00,7.2,1.8,30.46,WNW,289,5.0,7.0,78,0.00,,,0.00,0,Wunderground v.1.15,2013-12-11 11:34:00,
2013-12-11 05:35:00,7.1,1.7,30.47,NW,325,5.0,7.0,78,0.00,,,0.00,0,Wunderground v.1.15,2013-12-11 11:35:00,
2013-12-11 05:36:00,7.0,1.6,30.47,WNW,303,5.0,7.0,78,0.00,,,0.00,0,Wunderground v.1.15,2013-12-11 11:36:00,
2013-12-11 05:39:00,6.8,1.4,30.47,WNW,297,5.0,9.0,78,0.00,,,0.00,0,Wunderground v.1.15,2013-12-11 11:39:00,
2013-12-11 05:40:00,6.7,1.3,30.47,NW,306,5.0,7.0,78,0.00,,,0.00,0,Wunderground v.1.15,2013-12-11 11:40:00,
2013-12-11 05:41:00,6.6,1.2,30.47,NNW,336,5.0,7.0,78,0.00,,,0.00,0,Wunderground v.1.15,2013-12-11 11:41:00,
2013-12-11 05:45:00,6.3,0.9,30.47,NW,308,3.0,7.0,78,0.00,,,0.00,0,Wunderground v.1.15,2013-12-11 11:45:00,
2013-12-11 05:46:00,6.3,0.9,30.47,WNW,303,3.0,7.0,78,0.00,,,0.00,0,Wunderground v.1.15,2013-12-11 11:46:00,
2013-12-11 05:47:00,6.3,0.9,30.47,NW,308,3.0,7.0,78,0.00,,,0.00,0,Wunderground v.1.15,2013-12-11 11:47:00,
2013-12-11 05:48:00,6.2,0.8,30.47,NW,307,4.0,7.0,78,0.00,,,0.00,0,Wunderground v.1.15,2013-12-11 11:48:00,
2013-12-11 05:53:00,5.9,0.5,30.48,WNW,290,3.0,3.0,78,0.00,,,0.00,0,Wunderground v.1.15,2013-12-11 11:53:00,
2013-12-11 05:55:00,5.8,0.4,30.48,NW,309,3.0,3.0,78,0.00,,,0.00,0,Wunderground v.1.15,2013-12-11 11:55:00,
2013-12-11 05:56:00,5.7,0.3,30.48,NW,316,4.0,7.0,78,0.00,,,0.00,0,Wunderground v.1.15,2013-12-11 11:56:00,
2013-12-11 06:00:00,5.5,0.1,30.48,WNW,286,3.0,3.0,78,0.00,,,0.00,0,Wunderground v.1.15,2013-12-11 12:00:00,
2013-12-11 06:01:00,5.4,0.0,30.48,WNW,288,3.0,3.0,78,0.00,,,0.00,0,Wunderground v.1.15,2013-12-11 12:01:00,
2013-12-11 06:02:00,5.4,0.0,30.48,WNW,288,3.0,3.0,78,0.00,,,0.00,0,Wunderground v.1.15,2013-12-11 12:02:00,
2013-12-11 06:03:00,5.3,-0.1,30.48,NW,324,3.0,3.0,78,0.00,,,0.00,0,Wunderground v.1.15,2013-12-11 12:03:00,
2013-12-11 06:04:00,5.3,-0.1,30.49,NNW,340,3.0,3.0,78,0.00,,,0.00,0,Wunderground v.1.15,2013-12-11 12:04:00,
2013-12-11 06:07:00,5.1,-0.3,30.49,NNW,327,2.0,4.0,78,0.00,,,0.00,0,Wunderground v.1.15,2013-12-11 12:07:00,
2013-12-11 06:09:00,5.0,-0.4,30.49,NW,311,3.0,4.0,78,0.00,,,0.00,0,Wunderground v.1.15,2013-12-11 12:09:00,
2013-12-11 06:11:00,5.0,-0.4,30.49,North,360,3.0,5.0,78,0.00,,,0.00,0,Wunderground v.1.15,2013-12-11 12:11:00,
2013-12-11 06:14:00,4.8,-0.6,30.49,NNW,347,3.0,5.0,78,0.00,,,0.00,0,Wunderground v.1.15,2013-12-11 12:14:00,
2013-12-11 06:15:00,4.8,-0.6,30.49,NNW,346,3.0,5.0,78,0.00,,,0.00,0,Wunderground v.1.15,2013-12-11 12:15:00,
2013-12-11 06:16:00,4.7,-0.7,30.49,NW,325,3.0,5.0,78,0.00,,,0.00,0,Wunderground v.1.15,2013-12-11 12:16:00,
2013-12-11 06:17:00,4.7,-0.7,30.49,NW,326,3.0,5.0,78,0.00,,,0.00,0,Wunderground v.1.15,2013-12-11 12:17:00,
2013-12-11 06:22:00,4.5,-0.8,30.50,NNW,344,2.0,6.0,78,0.00,,,0.00,0,Wunderground v.1.15,2013-12-11 12:22:00,
2013-12-11 06:23:00,4.5,-0.8,30.50,NW,311,2.0,6.0,78,0.00,,,0.00,0,Wunderground v.1.15,2013-12-11 12:23:00,
2013-12-11 06:25:00,4.4,-0.9,30.50,NNW,335,3.0,6.0,78,0.00,,,0.00,0,Wunderground v.1.15,2013-12-11 12:25:00,
2013-12-11 06:27:00,4.3,-1.0,30.50,WNW,288,3.0,6.0,78,0.00,,,0.00,0,Wunderground v.1.15,2013-12-11 12:27:00,
2013-12-11 06:28:00,4.2,-1.1,30.50,WNW,285,3.0,6.0,78,0.00,,,0.00,0,Wunderground v.1.15,2013-12-11 12:28:00,
2013-12-11 06:32:00,4.1,-1.2,30.51,WNW,288,3.0,4.0,78,0.00,,,0.00,0,Wunderground v.1.15,2013-12-11 12:32:00,
2013-12-11 06:33:00,4.1,-1.2,30.51,WNW,288,3.0,4.0,78,0.00,,,0.00,0,Wunderground v.1.15,2013-12-11 12:33:00,
2013-12-11 06:35:00,4.0,-1.3,30.51,WNW,288,3.0,4.0,78,0.00,,,0.00,0,Wunderground v.1.15,2013-12-11 12:35:00,
2013-12-11 06:37:00,4.0,-1.3,30.51,WNW,288,3.0,4.0,78,0.00,,,0.00,0,Wunderground v.1.15,2013-12-11 12:37:00,
2013-12-11 06:38:00,3.9,-1.4,30.51,WNW,288,2.0,4.0,78,0.00,,,0.00,0,Wunderground v.1.15,2013-12-11 12:38:00,
2013-12-11 06:39:00,3.9,-1.4,30.52,WNW,288,2.0,4.0,78,0.00,,,0.00,0,Wunderground v.1.15,2013-12-11 12:39:00,
2013-12-11 06:40:00,3.8,-1.5,30.51,NW,313,2.0,3.0,78,0.00,,,0.00,0,Wunderground v.1.15,2013-12-11 12:40:00,
2013-12-11 06:41:00,3.8,-1.5,30.52,NW,313,2.0,3.0,78,0.00,,,0.00,0,Wunderground v.1.15,2013-12-11 12:41:00,
2013-12-11 06:44:00,3.7,-1.6,30.52,NW,313,2.0,3.0,78,0.00,,,0.00,0,Wunderground v.1.15,2013-12-11 12:44:00,
2013-12-11 06:47:00,3.6,-1.7,30.52,NW,312,2.0,3.0,78,0.00,,,0.00,0,Wunderground v.1.15,2013-12-11 12:47:00,
2013-12-11 06:48:00,3.5,-1.8,30.52,NW,312,2.0,3.0,78,0.00,,,0.00,0,Wunderground v.1.15,2013-12-11 12:48:00,
2013-12-11 06:49:00,3.5,-1.8,30.52,NW,312,2.0,3.0,78,0.00,,,0.00,0,Wunderground v.1.15,2013-12-11 12:49:00,
2013-12-11 06:51:00,3.4,-1.9,30.52,NW,310,1.0,4.0,78,0.00,,,0.00,0,Wunderground v.1.15,2013-12-11 12:51:00,
2013-12-11 06:53:00,3.3,-2.0,30.52,NW,309,2.0,4.0,78,0.00,,,0.00,0,Wunderground v.1.15,2013-12-11 12:53:00,
2013-12-11 06:54:00,3.2,-2.1,30.52,NW,304,2.0,4.0,78,0.00,,,0.00,0,Wunderground v.1.15,2013-12-11 12:54:00,
2013-12-11 06:55:00,3.2,-2.1,30.52,WNW,303,2.0,4.0,78,0.00,,,0.00,0,Wunderground v.1.15,2013-12-11 12:55:00,
2013-12-11 06:59:00,2.9,-2.4,30.53,WNW,303,2.0,5.0,78,0.00,,,0.00,0,Wunderground v.1.15,2013-12-11 12:59:00,
2013-12-11 07:01:00,2.9,-2.4,30.53,WNW,303,2.0,2.0,78,0.00,,,0.00,0,Wunderground v.1.15,2013-12-11 13:01:00,
2013-12-11 07:04:00,2.7,-2.6,30.53,NW,304,2.0,5.0,78,0.00,,,0.00,0,Wunderground v.1.15,2013-12-11 13:04:00,
2013-12-11 07:07:00,2.6,-2.7,30.53,WNW,303,2.0,5.0,78,0.00,,,0.00,0,Wunderground v.1.15,2013-12-11 13:07:00,
2013-12-11 07:08:00,2.5,-2.8,30.53,WSW,242,2.0,5.0,78,0.00,,,0.00,0,Wunderground v.1.15,2013-12-11 13:08:00,
2013-12-11 07:09:00,2.5,-2.8,30.53,West,265,2.0,5.0,78,0.00,,,0.00,0,Wunderground v.1.15,2013-12-11 13:09:00,
2013-12-11 07:11:00,2.3,-3.0,30.53,WNW,286,3.0,4.0,78,0.00,,,0.00,0,Wunderground v.1.15,2013-12-11 13:11:00,
2013-12-11 07:13:00,2.3,-3.0,30.53,WNW,284,3.0,8.0,78,0.00,,,0.00,0,Wunderground v.1.15,2013-12-11 13:13:00,
2013-12-11 07:15:00,2.1,-3.2,30.53,NW,304,3.0,8.0,78,0.00,,,0.00,0,Wunderground v.1.15,2013-12-11 13:15:00,
2013-12-11 07:18:00,2.0,-3.3,30.53,WSW,244,3.0,8.0,78,0.00,,,0.00,0,Wunderground v.1.15,2013-12-11 13:18:00,
2013-12-11 07:19:00,1.9,-3.4,30.54,WSW,246,3.0,8.0,78,0.00,,,0.00,0,Wunderground v.1.15,2013-12-11 13:19:00,
2013-12-11 07:21:00,1.8,-3.5,30.54,WNW,294,3.0,4.0,78,0.00,,,0.00,0,Wunderground v.1.15,2013-12-11 13:21:00,
2013-12-11 07:23:00,1.8,-3.5,30.54,NW,307,3.0,4.0,78,0.00,,,0.00,0,Wunderground v.1.15,2013-12-11 13:23:00,
2013-12-11 07:25:00,1.7,-3.6,30.54,West,269,3.0,4.0,78,0.00,,,0.00,0,Wunderground v.1.15,2013-12-11 13:25:00,
2013-12-11 07:28:00,1.6,-3.7,30.54,WNW,291,3.0,4.0,78,0.00,,,0.00,5,Wunderground v.1.15,2013-12-11 13:28:00,
2013-12-11 07:29:00,1.5,-3.8,30.54,WNW,292,2.0,4.0,78,0.00,,,0.00,5,Wunderground v.1.15,2013-12-11 13:29:00,
2013-12-11 07:30:00,1.5,-3.8,30.54,WNW,299,2.0,3.0,78,0.00,,,0.00,5,Wunderground v.1.15,2013-12-11 13:30:00,
2013-12-11 07:34:00,1.3,-4.0,30.55,West,280,2.0,6.0,78,0.00,,,0.00,7,Wunderground v.1.15,2013-12-11 13:34:00,
2013-12-11 07:36:00,1.2,-4.1,30.55,WSW,255,3.0,6.0,78,0.00,,,0.00,7,Wunderground v.1.15,2013-12-11 13:36:00,
2013-12-11 07:38:00,1.1,-4.2,30.55,WNW,302,3.0,6.0,78,0.00,,,0.00,9,Wunderground v.1.15,2013-12-11 13:38:00,
2013-12-11 07:39:00,1.1,-4.2,30.55,NW,317,3.0,6.0,78,0.00,,,0.00,9,Wunderground v.1.15,2013-12-11 13:39:00,
2013-12-11 07:41:00,0.9,-4.4,30.55,West,267,4.0,11.0,78,0.00,,,0.00,9,Wunderground v.1.15,2013-12-11 13:41:00,
2013-12-11 07:42:00,0.9,-4.4,30.55,WSW,247,4.0,11.0,78,0.00,,,0.00,11,Wunderground v.1.15,2013-12-11 13:42:00,
2013-12-11 07:43:00,0.9,-4.6,30.55,WNW,284,4.0,11.0,77,0.00,,,0.00,11,Wunderground v.1.15,2013-12-11 13:43:00,
2013-12-11 07:44:00,0.8,-4.7,30.55,West,264,4.0,11.0,77,0.00,,,0.00,11,Wunderground v.1.15,2013-12-11 13:44:00,
2013-12-11 07:45:00,0.7,-4.8,30.55,West,264,4.0,11.0,77,0.00,,,0.00,11,Wunderground v.1.15,2013-12-11 13:45:00,
2013-12-11 07:46:00,0.7,-4.8,30.55,West,279,4.0,11.0,77,0.00,,,0.00,12,Wunderground v.1.15,2013-12-11 13:46:00,
2013-12-11 07:51:00,0.5,-5.0,30.55,NW,323,3.0,4.0,77,0.00,,,0.00,14,Wunderground v.1.15,2013-12-11 13:51:00,
2013-12-11 07:52:00,0.5,-5.0,30.55,West,279,3.0,4.0,77,0.00,,,0.00,14,Wunderground v.1.15,2013-12-11 13:52:00,
2013-12-11 07:53:00,0.4,-5.1,30.55,WNW,296,3.0,4.0,77,0.00,,,0.00,14,Wunderground v.1.15,2013-12-11 13:53:00,
2013-12-11 07:56:00,0.3,-5.2,30.55,NW,310,3.0,4.0,77,0.00,,,0.00,32,Wunderground v.1.15,2013-12-11 13:56:00,
2013-12-11 07:57:00,0.3,-5.2,30.55,NW,309,3.0,4.0,77,0.00,,,0.00,35,Wunderground v.1.15,2013-12-11 13:57:00,
2013-12-11 07:58:00,0.2,-5.3,30.56,West,271,3.0,4.0,77,0.00,,,0.00,39,Wunderground v.1.15,2013-12-11 13:58:00,
2013-12-11 07:59:00,0.2,-5.3,30.56,WNW,289,3.0,4.0,77,0.00,,,0.00,39,Wunderground v.1.15,2013-12-11 13:59:00,
2013-12-11 08:02:00,0.2,-5.3,30.56,WNW,294,3.0,6.0,77,0.00,,,0.00,53,Wunderground v.1.15,2013-12-11 14:02:00,
2013-12-11 08:03:00,0.1,-5.4,30.56,NW,315,3.0,6.0,77,0.00,,,0.00,60,Wunderground v.1.15,2013-12-11 14:03:00,
2013-12-11 08:04:00,0.1,-5.4,30.56,NNW,329,3.0,6.0,77,0.00,,,0.00,60,Wunderground v.1.15,2013-12-11 14:04:00,
2013-12-11 08:08:00,0.1,-5.7,30.56,NW,313,3.0,6.0,76,0.00,,,0.00,90,Wunderground v.1.15,2013-12-11 14:08:00,
2013-12-11 08:09:00,0.2,-5.6,30.56,NW,317,3.0,6.0,76,0.00,,,0.00,86,Wunderground v.1.15,2013-12-11 14:09:00,
2013-12-11 08:10:00,0.2,-5.6,30.57,NNW,342,3.0,5.0,76,0.00,,,0.00,104,Wunderground v.1.15,2013-12-11 14:10:00,
2013-12-11 08:11:00,0.2,-5.6,30.57,NW,316,3.0,5.0,76,0.00,,,0.00,105,Wunderground v.1.15,2013-12-11 14:11:00,
2013-12-11 08:12:00,0.2,-5.6,30.57,NW,318,3.0,5.0,76,0.00,,,0.00,109,Wunderground v.1.15,2013-12-11 14:12:00,
2013-12-11 08:15:00,0.4,-5.4,30.57,NW,319,2.0,5.0,76,0.00,,,0.00,118,Wunderground v.1.15,2013-12-11 14:15:00,
2013-12-11 08:16:00,0.4,-5.4,30.57,NW,319,2.0,5.0,76,0.00,,,0.00,120,Wunderground v.1.15,2013-12-11 14:16:00,
2013-12-11 08:17:00,0.4,-5.4,30.57,NW,319,2.0,5.0,76,0.00,,,0.00,121,Wunderground v.1.15,2013-12-11 14:17:00,
2013-12-11 08:21:00,0.6,-5.2,30.58,NW,319,2.0,2.0,76,0.00,,,0.00,130,Wunderground v.1.15,2013-12-11 14:21:00,
2013-12-11 08:22:00,0.6,-5.2,30.58,NW,319,2.0,3.0,76,0.00,,,0.00,134,Wunderground v.1.15,2013-12-11 14:22:00,
2013-12-11 08:23:00,0.6,-5.2,30.58,NW,318,2.0,3.0,76,0.00,,,0.00,135,Wunderground v.1.15,2013-12-11 14:23:00,
2013-12-11 08:25:00,0.8,-5.0,30.58,NW,318,2.0,3.0,76,0.00,,,0.00,142,Wunderground v.1.15,2013-12-11 14:25:00,
2013-12-11 08:27:00,0.8,-5.0,30.58,WNW,290,3.0,4.0,76,0.00,,,0.00,148,Wunderground v.1.15,2013-12-11 14:27:00,
2013-12-11 08:28:00,0.8,-5.0,30.58,NNW,340,3.0,4.0,76,0.00,,,0.00,149,Wunderground v.1.15,2013-12-11 14:28:00,
2013-12-11 08:31:00,0.9,-4.9,30.58,NW,307,4.0,4.0,76,0.00,,,0.00,153,Wunderground v.1.15,2013-12-11 14:31:00,
2013-12-11 08:32:00,0.9,-4.9,30.58,NW,324,4.0,4.0,76,0.00,,,0.00,156,Wunderground v.1.15,2013-12-11 14:32:00,
2013-12-11 08:33:00,0.9,-5.2,30.58,NW,324,4.0,4.0,75,0.00,,,0.00,160,Wunderground v.1.15,2013-12-11 14:33:00,
2013-12-11 08:34:00,1.0,-5.1,30.58,NW,324,3.0,4.0,75,0.00,,,0.00,160,Wunderground v.1.15,2013-12-11 14:34:00,
2013-12-11 08:37:00,1.0,-5.1,30.59,NW,309,3.0,5.0,75,0.00,,,0.00,171,Wunderground v.1.15,2013-12-11 14:37:00,
2013-12-11 08:39:00,0.9,-5.2,30.59,NW,309,4.0,6.0,75,0.00,,,0.00,176,Wunderground v.1.15,2013-12-11 14:39:00,
2013-12-11 08:40:00,0.9,-5.2,30.59,NW,319,4.0,4.0,75,0.00,,,0.00,178,Wunderground v.1.15,2013-12-11 14:40:00,
2013-12-11 08:42:00,0.9,-5.2,30.59,WNW,287,4.0,7.0,75,0.00,,,0.00,183,Wunderground v.1.15,2013-12-11 14:42:00,
2013-12-11 08:45:00,0.9,-5.5,30.59,NW,313,5.0,7.0,74,0.00,,,0.00,188,Wunderground v.1.15,2013-12-11 14:45:00,
2013-12-11 08:46:00,0.9,-5.5,30.59,NW,313,4.0,7.0,74,0.00,,,0.00,190,Wunderground v.1.15,2013-12-11 14:46:00,
2013-12-11 08:47:00,0.9,-5.5,30.59,NW,313,4.0,7.0,74,0.00,,,0.00,195,Wunderground v.1.15,2013-12-11 14:47:00,
2013-12-11 08:49:00,1.0,-5.4,30.59,NW,313,4.0,7.0,74,0.00,,,0.00,199,Wunderground v.1.15,2013-12-11 14:49:00,
2013-12-11 08:51:00,0.9,-5.5,30.60,WNW,293,4.0,6.0,74,0.00,,,0.00,195,Wunderground v.1.15,2013-12-11 14:51:00,
2013-12-11 08:52:00,0.9,-5.5,30.59,WNW,292,4.0,6.0,74,0.00,,,0.00,195,Wunderground v.1.15,2013-12-11 14:52:00,
2013-12-11 08:53:00,0.9,-5.5,30.60,NNW,331,4.0,6.0,74,0.00,,,0.00,206,Wunderground v.1.15,2013-12-11 14:53:00,
2013-12-11 08:54:00,0.8,-5.5,30.60,NNW,333,4.0,6.0,74,0.00,,,0.00,207,Wunderground v.1.15,2013-12-11 14:54:00,
2013-12-11 08:57:00,0.9,-5.5,30.60,WNW,301,4.0,6.0,74,0.00,,,0.00,216,Wunderground v.1.15,2013-12-11 14:57:00,
2013-12-11 08:59:00,0.9,-5.5,30.60,NW,315,4.0,6.0,74,0.00,,,0.00,214,Wunderground v.1.15,2013-12-11 14:59:00,
2013-12-11 09:01:00,0.9,-5.5,30.60,WNW,296,4.0,7.0,74,0.00,,,0.00,46,Wunderground v.1.15,2013-12-11 15:01:00,
2013-12-11 09:02:00,0.9,-5.5,30.60,NW,314,4.0,7.0,74,0.00,,,0.00,225,Wunderground v.1.15,2013-12-11 15:02:00,
2013-12-11 09:05:00,0.8,-5.5,30.61,NNW,336,4.0,7.0,74,0.00,,,0.00,237,Wunderground v.1.15,2013-12-11 15:05:00,
2013-12-11 09:06:00,0.9,-5.7,30.61,NNW,336,3.0,7.0,73,0.00,,,0.00,237,Wunderground v.1.15,2013-12-11 15:06:00,
2013-12-11 09:11:00,1.1,-5.3,30.61,WNW,288,3.0,7.0,74,0.00,,,0.00,246,Wunderground v.1.15,2013-12-11 15:11:00,
2013-12-11 09:12:00,1.1,-5.5,30.61,West,270,3.0,7.0,73,0.00,,,0.00,251,Wunderground v.1.15,2013-12-11 15:12:00,
2013-12-11 09:13:00,1.1,-5.5,30.61,NW,318,3.0,7.0,73,0.00,,,0.00,253,Wunderground v.1.15,2013-12-11 15:13:00,
2013-12-11 09:14:00,1.1,-5.5,30.61,NW,318,3.0,7.0,73,0.00,,,0.00,258,Wunderground v.1.15,2013-12-11 15:14:00,
2013-12-11 09:18:00,1.3,-5.3,30.61,WNW,302,3.0,9.0,73,0.00,,,0.00,146,Wunderground v.1.15,2013-12-11 15:18:00,
2013-12-11 09:19:00,1.3,-5.3,30.61,NW,321,4.0,9.0,73,0.00,,,0.00,146,Wunderground v.1.15,2013-12-11 15:19:00,
2013-12-11 09:20:00,1.2,-5.4,30.61,West,269,4.0,4.0,73,0.00,,,0.00,267,Wunderground v.1.15,2013-12-11 15:20:00,
2013-12-11 09:22:00,1.1,-5.8,30.61,WNW,284,4.0,10.0,72,0.00,,,0.00,267,Wunderground v.1.15,2013-12-11 15:22:00,
2013-12-11 09:24:00,1.0,-5.9,30.61,WNW,293,5.0,10.0,72,0.00,,,0.00,271,Wunderground v.1.15,2013-12-11 15:24:00,
2013-12-11 09:27:00,1.1,-5.8,30.61,WNW,293,5.0,10.0,72,0.00,,,0.00,274,Wunderground v.1.15,2013-12-11 15:27:00,
2013-12-11 09:28:00,1.0,-5.9,30.61,NNW,340,6.0,10.0,72,0.00,,,0.00,276,Wunderground v.1.15,2013-12-11 15:28:00,
2013-12-11 09:29:00,1.0,-5.9,30.61,NNW,340,5.0,10.0,72,0.00,,,0.00,276,Wunderground v.1.15,2013-12-11 15:29:00,
2013-12-11 09:33:00,1.1,-5.8,30.61,West,277,5.0,8.0,72,0.00,,,0.00,283,Wunderground v.1.15,2013-12-11 15:33:00,
2013-12-11 09:34:00,1.0,-5.9,30.61,WNW,296,5.0,8.0,72,0.00,,,0.00,287,Wunderground v.1.15,2013-12-11 15:34:00,
2013-12-11 09:35:00,1.0,-5.9,30.61,West,281,5.0,8.0,72,0.00,,,0.00,288,Wunderground v.1.15,2013-12-11 15:35:00,
2013-12-11 09:37:00,0.9,-6.3,30.61,WNW,293,6.0,8.0,71,0.00,,,0.00,288,Wunderground v.1.15,2013-12-11 15:37:00,
2013-12-11 09:38:00,0.8,-6.4,30.61,NW,305,6.0,8.0,71,0.00,,,0.00,287,Wunderground v.1.15,2013-12-11 15:38:00,
2013-12-11 09:39:00,0.8,-6.4,30.61,WNW,300,6.0,8.0,71,0.00,,,0.00,288,Wunderground v.1.15,2013-12-11 15:39:00,
2013-12-11 09:43:00,0.9,-6.3,30.61,NW,311,6.0,6.0,71,0.00,,,0.00,295,Wunderground v.1.15,2013-12-11 15:43:00,
2013-12-11 09:45:00,1.0,-5.9,30.61,NW,313,5.0,6.0,72,0.00,,,0.00,297,Wunderground v.1.15,2013-12-11 15:45:00,
2013-12-11 09:46:00,1.0,-6.2,30.62,WNW,291,5.0,9.0,71,0.00,,,0.00,297,Wunderground v.1.15,2013-12-11 15:46:00,
2013-12-11 09:49:00,1.0,-6.2,30.62,NW,306,5.0,9.0,71,0.00,,,0.00,302,Wunderground v.1.15,2013-12-11 15:49:00,
2013-12-11 09:50:00,1.0,-6.2,30.62,NW,306,5.0,6.0,71,0.00,,,0.00,302,Wunderground v.1.15,2013-12-11 15:50:00,
2013-12-11 09:52:00,0.9,-6.3,30.62,West,262,5.0,10.0,71,0.00,,,0.00,308,Wunderground v.1.15,2013-12-11 15:52:00,
2013-12-11 09:56:00,1.1,-6.1,30.62,WNW,290,5.0,10.0,71,0.00,,,0.00,313,Wunderground v.1.15,2013-12-11 15:56:00,
2013-12-11 09:58:00,1.2,-6.0,30.62,NNW,328,5.0,10.0,71,0.00,,,0.00,315,Wunderground v.1.15,2013-12-11 15:58:00,
2013-12-11 09:59:00,1.2,-6.0,30.62,NW,325,5.0,10.0,71,0.00,,,0.00,315,Wunderground v.1.15,2013-12-11 15:59:00,
2013-12-11 10:00:00,1.3,-5.9,30.62,NW,325,5.0,5.0,71,0.00,,,0.00,318,Wunderground v.1.15,2013-12-11 16:00:00,
2013-12-11 10:01:00,1.4,-5.8,30.62,North,5,4.0,5.0,71,0.00,,,0.00,318,Wunderground v.1.15,2013-12-11 16:01:00,
2013-12-11 10:02:00,1.5,-5.7,30.62,North,5,4.0,5.0,71,0.00,,,0.00,320,Wunderground v.1.15,2013-12-11 16:02:00,
2013-12-11 10:04:00,1.8,-5.4,30.62,West,277,4.0,5.0,71,0.00,,,0.00,322,Wunderground v.1.15,2013-12-11 16:04:00,
2013-12-11 10:06:00,1.9,-5.3,30.63,NNW,335,3.0,8.0,71,0.00,,,0.00,325,Wunderground v.1.15,2013-12-11 16:06:00,
2013-12-11 10:08:00,2.0,-5.5,30.63,WNW,298,3.0,10.0,70,0.00,,,0.00,325,Wunderground v.1.15,2013-12-11 16:08:00,
2013-12-11 10:10:00,2.0,-5.5,30.63,WNW,297,4.0,6.0,70,0.00,,,0.00,327,Wunderground v.1.15,2013-12-11 16:10:00,
2013-12-11 10:11:00,1.9,-5.6,30.63,North,5,4.0,6.0,70,0.00,,,0.00,329,Wunderground v.1.15,2013-12-11 16:11:00,
2013-12-11 10:14:00,1.9,-5.9,30.63,West,277,4.0,6.0,69,0.00,,,0.00,332,Wunderground v.1.15,2013-12-11 16:14:00,
2013-12-11 10:15:00,2.0,-5.5,30.63,WNW,282,4.0,6.0,70,0.00,,,0.00,332,Wunderground v.1.15,2013-12-11 16:15:00,
2013-12-11 10:16:00,2.0,-5.5,30.63,WNW,288,4.0,6.0,70,0.00,,,0.00,334,Wunderground v.1.15,2013-12-11 16:16:00,
2013-12-11 10:17:00,2.0,-5.5,30.63,NW,304,4.0,6.0,70,0.00,,,0.00,334,Wunderground v.1.15,2013-12-11 16:17:00,
2013-12-11 10:19:00,2.2,-5.4,30.63,NNW,346,4.0,6.0,70,0.00,,,0.00,339,Wunderground v.1.15,2013-12-11 16:19:00,
2013-12-11 10:20:00,2.2,-5.4,30.63,NNW,340,3.0,5.0,70,0.00,,,0.00,341,Wunderground v.1.15,2013-12-11 16:20:00,
2013-12-11 10:22:00,2.4,-5.2,30.63,NW,316,3.0,6.0,70,0.00,,,0.00,341,Wunderground v.1.15,2013-12-11 16:22:00,
2013-12-11 10:24:00,2.6,-5.3,30.63,NW,323,3.0,6.0,69,0.00,,,0.00,343,Wunderground v.1.15,2013-12-11 16:24:00,
2013-12-11 10:25:00,2.6,-5.3,30.63,NW,307,3.0,6.0,69,0.00,,,0.00,339,Wunderground v.1.15,2013-12-11 16:25:00,
2013-12-11 10:26:00,2.7,-5.2,30.63,WNW,286,3.0,16.0,69,0.00,,,0.00,346,Wunderground v.1.15,2013-12-11 16:26:00,
2013-12-11 10:31:00,2.0,-6.1,30.63,WNW,296,5.0,5.0,68,0.00,,,0.00,352,Wunderground v.1.15,2013-12-11 16:31:00,
2013-12-11 10:34:00,2.3,-5.9,30.63,WNW,299,5.0,7.0,68,0.00,,,0.00,353,Wunderground v.1.15,2013-12-11 16:34:00,
2013-12-11 10:35:00,2.2,-6.0,30.63,WNW,295,5.0,7.0,68,0.00,,,0.00,355,Wunderground v.1.15,2013-12-11 16:35:00,
2013-12-11 10:36:00,2.2,-6.0,30.63,NW,318,5.0,7.0,68,0.00,,,0.00,355,Wunderground v.1.15,2013-12-11 16:36:00,
2013-12-11 10:37:00,2.2,-6.0,30.63,NW,304,4.0,7.0,68,0.00,,,0.00,357,Wunderground v.1.15,2013-12-11 16:37:00,
2013-12-11 10:39:00,2.1,-6.0,30.63,WNW,292,4.0,7.0,68,0.00,,,0.00,359,Wunderground v.1.15,2013-12-11 16:39:00,
2013-12-11 10:41:00,1.9,-6.5,30.63,WNW,282,5.0,8.0,67,0.00,,,0.00,362,Wunderground v.1.15,2013-12-11 16:41:00,
2013-12-11 10:42:00,1.9,-6.5,30.63,West,269,5.0,8.0,67,0.00,,,0.00,362,Wunderground v.1.15,2013-12-11 16:42:00,
2013-12-11 10:43:00,1.9,-6.5,30.63,NW,325,5.0,8.0,67,0.00,,,0.00,362,Wunderground v.1.15,2013-12-11 16:43:00,
2013-12-11 10:44:00,1.8,-6.6,30.63,WNW,289,6.0,8.0,67,0.00,,,0.00,364,Wunderground v.1.15,2013-12-11 16:44:00,
2013-12-11 10:45:00,1.8,-6.6,30.63,NW,306,6.0,8.0,67,0.00,,,0.00,364,Wunderground v.1.15,2013-12-11 16:45:00,
2013-12-11 10:48:00,1.9,-6.5,30.63,WNW,284,6.0,8.0,67,0.00,,,0.00,367,Wunderground v.1.15,2013-12-11 16:48:00,
2013-12-11 10:49:00,2.0,-6.5,30.63,West,261,5.0,10.0,67,0.00,,,0.00,367,Wunderground v.1.15,2013-12-11 16:49:00,
2013-12-11 10:50:00,2.0,-6.5,30.63,WNW,295,5.0,9.0,67,0.00,,,0.00,369,Wunderground v.1.15,2013-12-11 16:50:00,
2013-12-11 10:53:00,2.2,-6.3,30.63,SSW,198,5.0,9.0,67,0.00,,,0.00,373,Wunderground v.1.15,2013-12-11 16:53:00,
2013-12-11 10:54:00,2.2,-6.3,30.63,WNW,298,5.0,9.0,67,0.00,,,0.00,376,Wunderground v.1.15,2013-12-11 16:54:00,
2013-12-11 10:55:00,2.2,-6.3,30.63,West,275,5.0,9.0,67,0.00,,,0.00,376,Wunderground v.1.15,2013-12-11 16:55:00,
2013-12-11 10:58:00,2.3,-6.2,30.63,West,274,5.0,9.0,67,0.00,,,0.00,381,Wunderground v.1.15,2013-12-11 16:58:00,
2013-12-11 10:59:00,2.4,-6.1,30.63,West,278,5.0,9.0,67,0.00,,,0.00,381,Wunderground v.1.15,2013-12-11 16:59:00,
2013-12-11 11:02:00,2.7,-5.8,30.63,NW,311,4.0,6.0,67,0.00,,,0.00,385,Wunderground v.1.15,2013-12-11 17:02:00,
2013-12-11 11:05:00,2.8,-6.0,30.63,WSW,252,4.0,7.0,66,0.00,,,0.00,387,Wunderground v.1.15,2013-12-11 17:05:00,
2013-12-11 11:07:00,2.7,-6.4,30.63,NW,326,5.0,10.0,65,0.00,,,0.00,387,Wunderground v.1.15,2013-12-11 17:07:00,
2013-12-11 11:09:00,2.6,-6.5,30.63,NNW,333,5.0,10.0,65,0.00,,,0.00,388,Wunderground v.1.15,2013-12-11 17:09:00,
2013-12-11 11:12:00,2.8,-6.0,30.63,WSW,244,5.0,5.0,66,0.00,,,0.00,392,Wunderground v.1.15,2013-12-11 17:12:00,
2013-12-11 11:13:00,2.9,-5.9,30.63,WNW,292,5.0,5.0,66,0.00,,,0.00,394,Wunderground v.1.15,2013-12-11 17:13:00,
2013-12-11 11:14:00,3.0,-6.1,30.63,WSW,250,5.0,6.0,65,0.00,,,0.00,394,Wunderground v.1.15,2013-12-11 17:14:00,
2013-12-11 11:19:00,3.2,-5.9,30.63,NW,323,4.0,6.0,65,0.00,,,0.00,397,Wunderground v.1.15,2013-12-11 17:19:00,
2013-12-11 11:20:00,3.3,-5.8,30.63,NNW,327,4.0,4.0,65,0.00,,,0.00,397,Wunderground v.1.15,2013-12-11 17:20:00,
2013-12-11 11:21:00,3.3,-5.8,30.63,West,277,4.0,5.0,65,0.00,,,0.00,399,Wunderground v.1.15,2013-12-11 17:21:00,
2013-12-11 11:25:00,3.2,-6.2,30.63,West,261,4.0,8.0,64,0.00,,,0.00,399,Wunderground v.1.15,2013-12-11 17:25:00,
2013-12-11 11:26:00,3.3,-6.2,30.63,SW,234,4.0,8.0,64,0.00,,,0.00,403,Wunderground v.1.15,2013-12-11 17:26:00,
2013-12-11 11:29:00,3.4,-6.1,30.63,West,262,4.0,8.0,64,0.00,,,0.00,404,Wunderground v.1.15,2013-12-11 17:29:00,
2013-12-11 11:30:00,3.5,-6.0,30.63,NNW,346,4.0,4.0,64,0.00,,,0.00,404,Wunderground v.1.15,2013-12-11 17:30:00,
2013-12-11 11:32:00,3.7,-5.8,30.63,West,264,4.0,4.0,64,0.00,,,0.00,406,Wunderground v.1.15,2013-12-11 17:32:00,
2013-12-11 11:33:00,3.8,-5.7,30.63,NNW,342,4.0,4.0,64,0.00,,,0.00,406,Wunderground v.1.15,2013-12-11 17:33:00,
2013-12-11 11:35:00,3.8,-5.7,30.63,NNW,345,3.0,4.0,64,0.00,,,0.00,408,Wunderground v.1.15,2013-12-11 17:35:00,
2013-12-11 11:37:00,3.9,-5.6,30.63,NNW,340,3.0,4.0,64,0.00,,,0.00,408,Wunderground v.1.15,2013-12-11 17:37:00,
2013-12-11 11:38:00,3.8,-6.0,30.63,NNW,332,3.0,8.0,63,0.00,,,0.00,410,Wunderground v.1.15,2013-12-11 17:38:00,
2013-12-11 11:43:00,3.7,-6.1,30.63,West,261,4.0,7.0,63,0.00,,,0.00,411,Wunderground v.1.15,2013-12-11 17:43:00,
2013-12-11 11:44:00,3.7,-6.1,30.63,SSW,195,4.0,7.0,63,0.00,,,0.00,411,Wunderground v.1.15,2013-12-11 17:44:00,
2013-12-11 11:46:00,3.9,-5.9,30.62,WNW,287,4.0,7.0,63,0.00,,,0.00,411,Wunderground v.1.15,2013-12-11 17:46:00,
2013-12-11 11:48:00,4.0,-5.8,30.62,WSW,257,4.0,9.0,63,0.00,,,0.00,413,Wunderground v.1.15,2013-12-11 17:48:00,
2013-12-11 11:49:00,3.9,-5.9,30.62,West,261,4.0,9.0,63,0.00,,,0.00,415,Wunderground v.1.15,2013-12-11 17:49:00,
2013-12-11 11:50:00,3.9,-6.2,30.62,WSW,246,4.0,5.0,62,0.00,,,0.00,413,Wunderground v.1.15,2013-12-11 17:50:00,
2013-12-11 11:51:00,3.8,-6.3,30.62,NNW,333,4.0,5.0,62,0.00,,,0.00,415,Wunderground v.1.15,2013-12-11 17:51:00,
2013-12-11 11:53:00,3.6,-6.5,30.62,WNW,300,5.0,5.0,62,0.00,,,0.00,413,Wunderground v.1.15,2013-12-11 17:53:00,
2013-12-11 11:56:00,3.4,-6.7,30.63,WSW,254,5.0,7.0,62,0.00,,,0.00,415,Wunderground v.1.15,2013-12-11 17:56:00,
2013-12-11 11:57:00,3.4,-6.7,30.63,WSW,240,5.0,7.0,62,0.00,,,0.00,415,Wunderground v.1.15,2013-12-11 17:57:00,
2013-12-11 11:59:00,3.4,-6.4,30.62,SW,221,5.0,7.0,63,0.00,,,0.00,415,Wunderground v.1.15,2013-12-11 17:59:00,
2013-12-11 12:02:00,3.3,-6.8,30.62,WNW,283,6.0,8.0,62,0.00,,,0.00,417,Wunderground v.1.15,2013-12-11 18:02:00,
2013-12-11 12:03:00,3.4,-7.0,30.63,WNW,283,5.0,8.0,61,0.00,,,0.00,415,Wunderground v.1.15,2013-12-11 18:03:00,
2013-12-11 12:04:00,3.5,-6.6,30.63,North,351,5.0,8.0,62,0.00,,,0.00,415,Wunderground v.1.15,2013-12-11 18:04:00,
2013-12-11 12:08:00,3.3,-7.1,30.63,NW,315,6.0,10.0,61,0.00,,,0.00,413,Wunderground v.1.15,2013-12-11 18:08:00,
2013-12-11 12:09:00,3.1,-7.3,30.63,West,279,6.0,10.0,61,0.00,,,0.00,411,Wunderground v.1.15,2013-12-11 18:09:00,
2013-12-11 12:11:00,2.8,-8.0,30.63,NW,306,6.0,6.0,60,0.00,,,0.00,411,Wunderground v.1.15,2013-12-11 18:11:00,
2013-12-11 12:12:00,2.7,-8.1,30.63,NW,323,6.0,10.0,60,0.00,,,0.00,411,Wunderground v.1.15,2013-12-11 18:12:00,
2013-12-11 12:13:00,2.6,-8.1,30.63,NW,317,7.0,10.0,60,0.00,,,0.00,411,Wunderground v.1.15,2013-12-11 18:13:00,
2013-12-11 12:15:00,2.6,-8.1,30.63,NW,314,7.0,10.0,60,0.00,,,0.00,408,Wunderground v.1.15,2013-12-11 18:15:00,
2013-12-11 12:18:00,2.6,-7.8,30.63,NW,320,7.0,10.0,61,0.00,,,0.00,408,Wunderground v.1.15,2013-12-11 18:18:00,
2013-12-11 12:19:00,2.6,-7.8,30.63,WNW,302,6.0,10.0,61,0.00,,,0.00,410,Wunderground v.1.15,2013-12-11 18:19:00,
2013-12-11 12:22:00,2.7,-7.7,30.62,NNW,344,6.0,6.0,61,0.00,,,0.00,406,Wunderground v.1.15,2013-12-11 18:22:00,
2013-12-11 12:24:00,2.9,-7.2,30.62,NW,305,5.0,6.0,62,0.00,,,0.00,406,Wunderground v.1.15,2013-12-11 18:24:00,
2013-12-11 12:25:00,3.0,-7.1,30.63,NW,325,5.0,6.0,62,0.00,,,0.00,403,Wunderground v.1.15,2013-12-11 18:25:00,
2013-12-11 12:27:00,3.3,-6.8,30.63,NW,323,5.0,6.0,62,0.00,,,0.00,401,Wunderground v.1.15,2013-12-11 18:27:00,
2013-12-11 12:29:00,3.6,-6.5,30.62,WNW,287,4.0,6.0,62,0.00,,,0.00,401,Wunderground v.1.15,2013-12-11 18:29:00,
2013-12-11 12:30:00,3.8,-6.3,30.62,WSW,244,4.0,7.0,62,0.00,,,0.00,403,Wunderground v.1.15,2013-12-11 18:30:00,
2013-12-11 12:31:00,3.9,-6.2,30.62,WNW,293,4.0,7.0,62,0.00,,,0.00,401,Wunderground v.1.15,2013-12-11 18:31:00,
2013-12-11 12:32:00,4.0,-6.1,30.62,WNW,296,4.0,7.0,62,0.00,,,0.00,401,Wunderground v.1.15,2013-12-11 18:32:00,
2013-12-11 12:34:00,4.1,-6.0,30.62,NNW,336,3.0,7.0,62,0.00,,,0.00,397,Wunderground v.1.15,2013-12-11 18:34:00,
2013-12-11 12:36:00,4.2,-6.0,30.62,NW,314,3.0,7.0,62,0.00,,,0.00,397,Wunderground v.1.15,2013-12-11 18:36:00,
2013-12-11 12:37:00,4.3,-5.9,30.62,NW,312,3.0,7.0,62,0.00,,,0.00,397,Wunderground v.1.15,2013-12-11 18:37:00,
2013-12-11 12:38:00,4.5,-5.7,30.62,West,275,3.0,7.0,62,0.00,,,0.00,397,Wunderground v.1.15,2013-12-11 18:38:00,
2013-12-11 12:41:00,4.7,-5.5,30.62,SSW,213,4.0,7.0,62,0.00,,,0.00,396,Wunderground v.1.15,2013-12-11 18:41:00,
2013-12-11 12:43:00,4.7,-6.2,30.62,WSW,249,4.0,7.0,60,0.00,,,0.00,394,Wunderground v.1.15,2013-12-11 18:43:00,
2013-12-11 12:44:00,4.7,-6.2,30.62,West,264,4.0,7.0,60,0.00,,,0.00,394,Wunderground v.1.15,2013-12-11 18:44:00,
2013-12-11 12:46:00,4.7,-6.2,30.62,SW,234,4.0,7.0,60,0.00,,,0.00,390,Wunderground v.1.15,2013-12-11 18:46:00,
2013-12-11 12:48:00,4.8,-6.1,30.62,WNW,297,5.0,7.0,60,0.00,,,0.00,388,Wunderground v.1.15,2013-12-11 18:48:00,
2013-12-11 12:50:00,4.8,-6.1,30.62,WSW,241,5.0,8.0,60,0.00,,,0.00,388,Wunderground v.1.15,2013-12-11 18:50:00,
2013-12-11 12:53:00,4.8,-6.1,30.62,WSW,239,5.0,8.0,60,0.00,,,0.00,385,Wunderground v.1.15,2013-12-11 18:53:00,
2013-12-11 12:54:00,4.8,-6.1,30.62,West,271,5.0,8.0,60,0.00,,,0.00,385,Wunderground v.1.15,2013-12-11 18:54:00,
2013-12-11 12:56:00,4.8,-6.1,30.62,West,275,4.0,8.0,60,0.00,,,0.00,381,Wunderground v.1.15,2013-12-11 18:56:00,
2013-12-11 12:57:00,4.8,-6.1,30.62,WNW,302,4.0,8.0,60,0.00,,,0.00,381,Wunderground v.1.15,2013-12-11 18:57:00,
2013-12-11 12:59:00,4.7,-6.5,30.62,NNW,329,4.0,8.0,59,0.00,,,0.00,380,Wunderground v.1.15,2013-12-11 18:59:00,
2013-12-11 13:00:00,4.7,-6.5,30.62,WNW,294,4.0,4.0,59,0.00,,,0.00,378,Wunderground v.1.15,2013-12-11 19:00:00,
2013-12-11 13:02:00,4.6,-6.6,30.62,NNW,329,4.0,4.0,59,0.00,,,0.00,374,Wunderground v.1.15,2013-12-11 19:02:00,
2013-12-11 13:04:00,4.7,-6.5,30.62,NW,326,3.0,4.0,59,0.00,,,0.00,373,Wunderground v.1.15,2013-12-11 19:04:00,
2013-12-11 13:05:00,4.7,-6.5,30.62,NNW,344,3.0,4.0,59,0.00,,,0.00,371,Wunderground v.1.15,2013-12-11 19:05:00,
2013-12-11 13:06:00,4.8,-6.4,30.61,WSW,243,4.0,4.0,59,0.00,,,0.00,371,Wunderground v.1.15,2013-12-11 19:06:00,
2013-12-11 13:07:00,4.9,-6.3,30.62,NW,322,4.0,6.0,59,0.00,,,0.00,369,Wunderground v.1.15,2013-12-11 19:07:00,
2013-12-11 13:10:00,4.7,-6.9,30.62,NNW,327,4.0,6.0,58,0.00,,,0.00,366,Wunderground v.1.15,2013-12-11 19:10:00,
2013-12-11 13:13:00,4.6,-6.6,30.62,NW,304,4.0,6.0,59,0.00,,,0.00,362,Wunderground v.1.15,2013-12-11 19:13:00,
2013-12-11 13:14:00,4.6,-6.6,30.62,NW,313,4.0,6.0,59,0.00,,,0.00,360,Wunderground v.1.15,2013-12-11 19:14:00,
2013-12-11 13:18:00,4.6,-7.0,30.62,WSW,258,5.0,7.0,58,0.00,,,0.00,357,Wunderground v.1.15,2013-12-11 19:18:00,
2013-12-11 13:19:00,4.6,-7.0,30.62,WSW,258,4.0,7.0,58,0.00,,,0.00,355,Wunderground v.1.15,2013-12-11 19:19:00,
2013-12-11 13:20:00,4.6,-7.0,30.62,West,263,4.0,7.0,58,0.00,,,0.00,353,Wunderground v.1.15,2013-12-11 19:20:00,
2013-12-11 13:21:00,4.6,-7.0,30.62,WSW,242,4.0,7.0,58,0.00,,,0.00,352,Wunderground v.1.15,2013-12-11 19:21:00,
2013-12-11 13:23:00,4.6,-7.0,30.62,WSW,255,4.0,7.0,58,0.00,,,0.00,350,Wunderground v.1.15,2013-12-11 19:23:00,
2013-12-11 13:25:00,4.7,-6.5,30.61,WSW,256,4.0,7.0,59,0.00,,,0.00,348,Wunderground v.1.15,2013-12-11 19:25:00,
2013-12-11 13:26:00,4.9,-6.3,30.61,WSW,238,4.0,7.0,59,0.00,,,0.00,345,Wunderground v.1.15,2013-12-11 19:26:00,
2013-12-11 13:28:00,5.0,-6.2,30.61,West,279,3.0,7.0,59,0.00,,,0.00,343,Wunderground v.1.15,2013-12-11 19:28:00,
2013-12-11 13:30:00,5.3,-5.9,30.61,SW,228,3.0,11.0,59,0.00,,,0.00,339,Wunderground v.1.15,2013-12-11 19:30:00,
2013-12-11 13:32:00,5.5,-5.7,30.61,West,272,2.0,11.0,59,0.00,,,0.00,338,Wunderground v.1.15,2013-12-11 19:32:00,
2013-12-11 13:37:00,5.6,-6.4,30.61,NW,315,3.0,11.0,57,0.00,,,0.00,329,Wunderground v.1.15,2013-12-11 19:37:00,
2013-12-11 13:38:00,5.4,-6.6,30.61,NNW,342,4.0,11.0,57,0.00,,,0.00,327,Wunderground v.1.15,2013-12-11 19:38:00,
2013-12-11 13:39:00,5.3,-6.7,30.61,West,279,4.0,11.0,57,0.00,,,0.00,325,Wunderground v.1.15,2013-12-11 19:39:00,
2013-12-11 13:41:00,5.1,-6.8,30.61,NW,305,4.0,4.0,57,0.00,,,0.00,323,Wunderground v.1.15,2013-12-11 19:41:00,
2013-12-11 13:43:00,5.0,-6.9,30.61,WNW,300,5.0,5.0,57,0.00,,,0.00,318,Wunderground v.1.15,2013-12-11 19:43:00,
2013-12-11 13:44:00,4.9,-4.6,30.61,NW,310,5.0,7.0,64,0.00,,,0.00,316,Wunderground v.1.15,2013-12-11 19:44:00,
2013-12-11 13:45:00,4.8,-4.7,30.61,NW,324,5.0,9.0,64,0.00,,,0.00,316,Wunderground v.1.15,2013-12-11 19:45:00,
2013-12-11 13:47:00,4.5,-7.4,30.61,WNW,292,5.0,9.0,57,0.00,,,0.00,315,Wunderground v.1.15,2013-12-11 19:47:00,
2013-12-11 13:48:00,4.5,-7.4,30.61,WNW,284,5.0,9.0,57,0.00,,,0.00,311,Wunderground v.1.15,2013-12-11 19:48:00,
2013-12-11 13:49:00,4.6,-7.0,30.61,WNW,284,4.0,9.0,58,0.00,,,0.00,309,Wunderground v.1.15,2013-12-11 19:49:00,
2013-12-11 13:52:00,4.8,-6.8,30.61,NW,320,4.0,7.0,58,0.00,,,0.00,304,Wunderground v.1.15,2013-12-11 19:52:00,
2013-12-11 13:53:00,4.8,-6.8,30.61,WSW,243,4.0,7.0,58,0.00,,,0.00,301,Wunderground v.1.15,2013-12-11 19:53:00,
2013-12-11 13:54:00,4.9,-6.7,30.61,NNW,348,4.0,7.0,58,0.00,,,0.00,299,Wunderground v.1.15,2013-12-11 19:54:00,
2013-12-11 13:55:00,4.9,-6.7,30.61,NNW,340,4.0,7.0,58,0.00,,,0.00,297,Wunderground v.1.15,2013-12-11 19:55:00,
2013-12-11 13:59:00,5.4,-6.2,30.61,WSW,253,3.0,7.0,58,0.00,,,0.00,292,Wunderground v.1.15,2013-12-11 19:59:00,
2013-12-11 14:00:00,5.5,-6.1,30.61,WSW,237,3.0,6.0,58,0.00,,,0.00,288,Wunderground v.1.15,2013-12-11 20:00:00,
2013-12-11 14:01:00,5.5,-6.1,30.62,SW,231,3.0,6.0,58,0.00,,,0.00,287,Wunderground v.1.15,2013-12-11 20:01:00,
2013-12-11 14:02:00,5.4,-6.2,30.61,SW,234,3.0,6.0,58,0.00,,,0.00,287,Wunderground v.1.15,2013-12-11 20:02:00,
2013-12-11 14:05:00,5.3,-6.7,30.61,WSW,240,4.0,6.0,57,0.00,,,0.00,278,Wunderground v.1.15,2013-12-11 20:05:00,
2013-12-11 14:09:00,5.1,-6.5,30.61,SW,231,5.0,6.0,58,0.00,,,0.00,272,Wunderground v.1.15,2013-12-11 20:09:00,
2013-12-11 14:11:00,5.3,-6.3,30.61,SW,232,4.0,5.0,58,0.00,,,0.00,267,Wunderground v.1.15,2013-12-11 20:11:00,
2013-12-11 14:15:00,5.5,-6.1,30.61,NW,307,3.0,6.0,58,0.00,,,0.00,258,Wunderground v.1.15,2013-12-11 20:15:00,
2013-12-11 14:16:00,5.5,-6.1,30.61,WNW,302,3.0,6.0,58,0.00,,,0.00,255,Wunderground v.1.15,2013-12-11 20:16:00,
2013-12-11 14:17:00,5.5,-6.1,30.61,WNW,292,4.0,7.0,58,0.00,,,0.00,253,Wunderground v.1.15,2013-12-11 20:17:00,
2013-12-11 14:18:00,5.4,-6.6,30.61,NW,311,4.0,7.0,57,0.00,,,0.00,251,Wunderground v.1.15,2013-12-11 20:18:00,
2013-12-11 14:21:00,5.2,-6.7,30.61,NW,315,4.0,4.0,57,0.00,,,0.00,244,Wunderground v.1.15,2013-12-11 20:21:00,
2013-12-11 14:22:00,5.2,-6.7,30.61,West,269,4.0,4.0,57,0.00,,,0.00,241,Wunderground v.1.15,2013-12-11 20:22:00,
2013-12-11 14:23:00,5.1,-6.8,30.61,West,275,4.0,5.0,57,0.00,,,0.00,239,Wunderground v.1.15,2013-12-11 20:23:00,
2013-12-11 14:25:00,5.0,-6.9,30.61,NW,321,4.0,5.0,57,0.00,,,0.00,234,Wunderground v.1.15,2013-12-11 20:25:00,
2013-12-11 14:28:00,4.9,-7.4,30.61,WSW,250,3.0,5.0,56,0.00,,,0.00,225,Wunderground v.1.15,2013-12-11 20:28:00,
2013-12-11 14:29:00,4.9,-7.4,30.61,NNW,338,3.0,5.0,56,0.00,,,0.00,223,Wunderground v.1.15,2013-12-11 20:29:00,
2013-12-11 14:31:00,5.0,-6.9,30.61,SW,234,3.0,6.0,57,0.00,,,0.00,218,Wunderground v.1.15,2013-12-11 20:31:00,
2013-12-11 14:33:00,5.1,-6.8,30.61,SW,230,4.0,6.0,57,0.00,,,0.00,213,Wunderground v.1.15,2013-12-11 20:33:00,
2013-12-11 14:34:00,5.1,-6.8,30.61,SW,228,4.0,6.0,57,0.00,,,0.00,211,Wunderground v.1.15,2013-12-11 20:34:00,
2013-12-11 14:38:00,5.0,-6.9,30.61,SW,215,5.0,7.0,57,0.00,,,0.00,202,Wunderground v.1.15,2013-12-11 20:38:00,
2013-12-11 14:39:00,4.9,-7.0,30.62,WSW,239,5.0,7.0,57,0.00,,,0.00,199,Wunderground v.1.15,2013-12-11 20:39:00,
2013-12-11 14:40:00,4.9,-7.0,30.62,WSW,250,5.0,5.0,57,0.00,,,0.00,197,Wunderground v.1.15,2013-12-11 20:40:00,
2013-12-11 14:43:00,4.9,-7.0,30.62,WSW,250,5.0,6.0,57,0.00,,,0.00,188,Wunderground v.1.15,2013-12-11 20:43:00,
2013-12-11 14:44:00,4.9,-7.0,30.61,SW,227,5.0,7.0,57,0.00,,,0.00,185,Wunderground v.1.15,2013-12-11 20:44:00,
2013-12-11 14:45:00,4.9,-7.0,30.61,SW,225,5.0,7.0,57,0.00,,,0.00,183,Wunderground v.1.15,2013-12-11 20:45:00,
2013-12-11 14:46:00,4.9,-7.0,30.61,SW,234,5.0,7.0,57,0.00,,,0.00,179,Wunderground v.1.15,2013-12-11 20:46:00,
2013-12-11 14:47:00,4.8,-7.1,30.62,SW,236,5.0,9.0,57,0.00,,,0.00,176,Wunderground v.1.15,2013-12-11 20:47:00,
2013-12-11 14:49:00,4.7,-7.2,30.62,WSW,247,5.0,9.0,57,0.00,,,0.00,172,Wunderground v.1.15,2013-12-11 20:49:00,
2013-12-11 14:50:00,4.6,-7.3,30.62,SW,234,5.0,6.0,57,0.00,,,0.00,169,Wunderground v.1.15,2013-12-11 20:50:00,
2013-12-11 14:51:00,4.5,-7.4,30.62,SW,230,6.0,6.0,57,0.00,,,0.00,167,Wunderground v.1.15,2013-12-11 20:51:00,
2013-12-11 14:52:00,4.5,-7.0,30.61,SW,234,6.0,8.0,58,0.00,,,0.00,162,Wunderground v.1.15,2013-12-11 20:52:00,
2013-12-11 14:53:00,4.5,-7.0,30.62,SW,229,6.0,8.0,58,0.00,,,0.00,160,Wunderground v.1.15,2013-12-11 20:53:00,
2013-12-11 14:56:00,4.4,-7.1,30.62,SW,221,6.0,8.0,58,0.00,,,0.00,153,Wunderground v.1.15,2013-12-11 20:56:00,
2013-12-11 14:59:00,4.3,-7.2,30.62,SW,223,6.0,8.0,58,0.00,,,0.00,144,Wunderground v.1.15,2013-12-11 20:59:00,
2013-12-11 15:00:00,4.3,-7.2,30.62,WSW,237,6.0,7.0,58,0.00,,,0.00,141,Wunderground v.1.15,2013-12-11 21:00:00,
2013-12-11 15:01:00,4.2,-7.3,30.63,SW,234,6.0,7.0,58,0.00,,,0.00,139,Wunderground v.1.15,2013-12-11 21:01:00,
2013-12-11 15:03:00,4.2,-7.3,30.63,SW,225,6.0,9.0,58,0.00,,,0.00,132,Wunderground v.1.15,2013-12-11 21:03:00,
2013-12-11 15:04:00,4.2,-7.3,30.63,SW,223,6.0,9.0,58,0.00,,,0.00,130,Wunderground v.1.15,2013-12-11 21:04:00,
2013-12-11 15:06:00,4.1,-7.1,30.63,SW,232,7.0,9.0,59,0.00,,,0.00,125,Wunderground v.1.15,2013-12-11 21:06:00,
2013-12-11 15:07:00,4.1,-7.1,30.63,SSW,209,7.0,9.0,59,0.00,,,0.00,123,Wunderground v.1.15,2013-12-11 21:07:00,
2013-12-11 15:08:00,4.0,-7.2,30.63,WSW,242,7.0,9.0,59,0.00,,,0.00,120,Wunderground v.1.15,2013-12-11 21:08:00,
2013-12-11 15:09:00,4.0,-7.2,30.63,SW,220,7.0,9.0,59,0.00,,,0.00,116,Wunderground v.1.15,2013-12-11 21:09:00,
2013-12-11 15:10:00,4.0,-7.2,30.63,SW,236,7.0,7.0,59,0.00,,,0.00,114,Wunderground v.1.15,2013-12-11 21:10:00,
2013-12-11 15:11:00,3.9,-7.6,30.63,WSW,237,7.0,7.0,58,0.00,,,0.00,113,Wunderground v.1.15,2013-12-11 21:11:00,
2013-12-11 15:13:00,3.9,-7.3,30.63,SW,233,7.0,8.0,59,0.00,,,0.00,107,Wunderground v.1.15,2013-12-11 21:13:00,
2013-12-11 15:14:00,3.8,-7.4,30.63,SW,227,7.0,8.0,59,0.00,,,0.00,105,Wunderground v.1.15,2013-12-11 21:14:00,
2013-12-11 15:17:00,3.8,-7.4,30.63,SW,235,7.0,8.0,59,0.00,,,0.00,97,Wunderground v.1.15,2013-12-11 21:17:00,
2013-12-11 15:18:00,3.8,-7.4,30.63,SW,225,7.0,8.0,59,0.00,,,0.00,95,Wunderground v.1.15,2013-12-11 21:18:00,
2013-12-11 15:22:00,3.7,-7.5,30.62,SW,224,6.0,7.0,59,0.00,,,0.00,84,Wunderground v.1.15,2013-12-11 21:22:00,
2013-12-11 15:23:00,3.8,-7.4,30.62,SW,225,6.0,7.0,59,0.00,,,0.00,84,Wunderground v.1.15,2013-12-11 21:23:00,
2013-12-11 15:24:00,3.7,-7.5,30.62,SW,227,6.0,7.0,59,0.00,,,0.00,79,Wunderground v.1.15,2013-12-11 21:24:00,
2013-12-11 15:28:00,3.6,-7.5,30.63,SW,228,6.0,7.0,59,0.00,,,0.00,69,Wunderground v.1.15,2013-12-11 21:28:00,
2013-12-11 15:31:00,3.6,-7.5,30.63,SW,221,6.0,6.0,59,0.00,,,0.00,63,Wunderground v.1.15,2013-12-11 21:31:00,
2013-12-11 15:35:00,3.6,-7.5,30.63,SSW,212,6.0,11.0,59,0.00,,,0.00,54,Wunderground v.1.15,2013-12-11 21:35:00,
2013-12-11 15:36:00,3.6,-7.5,30.63,WSW,248,6.0,11.0,59,0.00,,,0.00,53,Wunderground v.1.15,2013-12-11 21:36:00,
2013-12-11 15:37:00,3.6,-7.5,30.63,WSW,238,6.0,11.0,59,0.00,,,0.00,51,Wunderground v.1.15,2013-12-11 21:37:00,
2013-12-11 15:38:00,3.6,-7.5,30.63,SW,224,6.0,11.0,59,0.00,,,0.00,47,Wunderground v.1.15,2013-12-11 21:38:00,
2013-12-11 15:41:00,3.5,-7.6,30.64,SW,233,5.0,6.0,59,0.00,,,0.00,37,Wunderground v.1.15,2013-12-11 21:41:00,
2013-12-11 15:42:00,3.6,-7.5,30.64,SW,232,5.0,6.0,59,0.00,,,0.00,37,Wunderground v.1.15,2013-12-11 21:42:00,
2013-12-11 15:43:00,3.5,-7.6,30.64,SW,217,5.0,6.0,59,0.00,,,0.00,26,Wunderground v.1.15,2013-12-11 21:43:00,
2013-12-11 15:44:00,3.5,-7.6,30.64,WSW,239,5.0,8.0,59,0.00,,,0.00,26,Wunderground v.1.15,2013-12-11 21:44:00,
2013-12-11 15:46:00,3.4,-7.7,30.64,SW,221,5.0,8.0,59,0.00,,,0.00,23,Wunderground v.1.15,2013-12-11 21:46:00,
2013-12-11 15:50:00,3.2,-7.9,30.64,West,263,5.0,5.0,59,0.00,,,0.00,19,Wunderground v.1.15,2013-12-11 21:50:00,
2013-12-11 15:51:00,3.2,-7.9,30.64,WNW,290,5.0,5.0,59,0.00,,,0.00,19,Wunderground v.1.15,2013-12-11 21:51:00,
2013-12-11 15:53:00,3.1,-8.0,30.64,SW,217,5.0,5.0,59,0.00,,,0.00,18,Wunderground v.1.15,2013-12-11 21:53:00,
2013-12-11 15:54:00,3.0,-8.1,30.64,SW,229,5.0,5.0,59,0.00,,,0.00,18,Wunderground v.1.15,2013-12-11 21:54:00,
2013-12-11 15:55:00,2.9,-8.2,30.64,SW,230,4.0,5.0,59,0.00,,,0.00,18,Wunderground v.1.15,2013-12-11 21:55:00,
2013-12-11 16:00:00,2.7,-8.1,30.64,SW,224,2.0,4.0,60,0.00,,,0.00,16,Wunderground v.1.15,2013-12-11 22:00:00,
2013-12-11 16:01:00,2.7,-8.1,30.64,SW,225,2.0,4.0,60,0.00,,,0.00,16,Wunderground v.1.15,2013-12-11 22:01:00,
2013-12-11 16:02:00,2.6,-8.1,30.64,SW,225,2.0,4.0,60,0.00,,,0.00,14,Wunderground v.1.15,2013-12-11 22:02:00,
2013-12-11 16:05:00,2.4,-8.3,30.64,SW,231,2.0,4.0,60,0.00,,,0.00,14,Wunderground v.1.15,2013-12-11 22:05:00,
2013-12-11 16:07:00,2.3,-8.4,30.64,WNW,302,2.0,4.0,60,0.00,,,0.00,12,Wunderground v.1.15,2013-12-11 22:07:00,
2013-12-11 16:08:00,2.3,-8.1,30.64,WNW,301,2.0,4.0,61,0.00,,,0.00,12,Wunderground v.1.15,2013-12-11 22:08:00,
2013-12-11 16:09:00,2.2,-8.2,30.64,NW,307,2.0,4.0,61,0.00,,,0.00,12,Wunderground v.1.15,2013-12-11 22:09:00,
2013-12-11 16:10:00,2.2,-8.2,30.63,NW,317,3.0,3.0,61,0.00,,,0.00,11,Wunderground v.1.15,2013-12-11 22:10:00,
2013-12-11 16:13:00,2.2,-8.2,30.64,West,267,2.0,3.0,61,0.00,,,0.00,9,Wunderground v.1.15,2013-12-11 22:13:00,
2013-12-11 16:14:00,2.1,-8.3,30.64,West,267,2.0,3.0,61,0.00,,,0.00,9,Wunderground v.1.15,2013-12-11 22:14:00,
2013-12-11 16:15:00,2.1,-8.3,30.64,West,267,2.0,3.0,61,0.00,,,0.00,9,Wunderground v.1.15,2013-12-11 22:15:00,
2013-12-11 16:16:00,2.1,-8.3,30.64,West,267,2.0,3.0,61,0.00,,,0.00,7,Wunderground v.1.15,2013-12-11 22:16:00,
2013-12-11 16:17:00,2.1,-8.3,30.64,SW,236,2.0,4.0,61,0.00,,,0.00,7,Wunderground v.1.15,2013-12-11 22:17:00,
2013-12-11 16:18:00,2.0,-8.4,30.64,WSW,242,2.0,4.0,61,0.00,,,0.00,7,Wunderground v.1.15,2013-12-11 22:18:00,
2013-12-11 16:21:00,1.9,-8.1,30.64,WSW,242,2.0,2.0,62,0.00,,,0.00,5,Wunderground v.1.15,2013-12-11 22:21:00,
2013-12-11 16:22:00,1.9,-8.1,30.64,WSW,242,1.0,2.0,62,0.00,,,0.00,5,Wunderground v.1.15,2013-12-11 22:22:00,
2013-12-11 16:23:00,1.9,-8.1,30.64,WSW,242,1.0,2.0,62,0.00,,,0.00,5,Wunderground v.1.15,2013-12-11 22:23:00,
2013-12-11 16:25:00,1.8,-8.2,30.64,WSW,242,1.0,2.0,62,0.00,,,0.00,5,Wunderground v.1.15,2013-12-11 22:25:00,
2013-12-11 16:26:00,1.8,-8.2,30.64,WSW,242,1.0,2.0,62,0.00,,,0.00,0,Wunderground v.1.15,2013-12-11 22:26:00,
2013-12-11 16:29:00,1.7,-8.3,30.64,WSW,242,0.0,2.0,62,0.00,,,0.00,0,Wunderground v.1.15,2013-12-11 22:29:00,
2013-12-11 16:31:00,1.7,-8.3,30.64,WSW,242,0.0,0.0,62,0.00,,,0.00,0,Wunderground v.1.15,2013-12-11 22:31:00,
2013-12-11 16:33:00,1.6,-8.4,30.64,WSW,242,0.0,1.0,62,0.00,,,0.00,0,Wunderground v.1.15,2013-12-11 22:33:00,
2013-12-11 16:35:00,1.5,-8.2,30.64,WSW,242,0.0,1.0,63,0.00,,,0.00,0,Wunderground v.1.15,2013-12-11 22:35:00,
2013-12-11 16:36:00,1.6,-8.1,30.64,WSW,242,0.0,1.0,63,0.00,,,0.00,0,Wunderground v.1.15,2013-12-11 22:36:00,
2013-12-11 16:37:00,1.5,-8.2,30.64,WSW,242,0.0,1.0,63,0.00,,,0.00,0,Wunderground v.1.15,2013-12-11 22:37:00,
2013-12-11 16:41:00,1.4,-8.3,30.64,WSW,242,0.0,0.0,63,0.00,,,0.00,0,Wunderground v.1.15,2013-12-11 22:41:00,
2013-12-11 16:42:00,1.3,-8.4,30.64,WSW,242,0.0,0.0,63,0.00,,,0.00,0,Wunderground v.1.15,2013-12-11 22:42:00,
2013-12-11 16:43:00,1.3,-8.4,30.64,WSW,242,0.0,0.0,63,0.00,,,0.00,0,Wunderground v.1.15,2013-12-11 22:43:00,
2013-12-11 16:46:00,1.2,-8.2,30.64,WSW,242,0.0,0.0,64,0.00,,,0.00,0,Wunderground v.1.15,2013-12-11 22:46:00,
2013-12-11 16:48:00,1.1,-8.3,30.64,WSW,242,0.0,0.0,64,0.00,,,0.00,0,Wunderground v.1.15,2013-12-11 22:48:00,
2013-12-11 16:49:00,1.1,-8.3,30.64,WSW,242,0.0,0.0,64,0.00,,,0.00,0,Wunderground v.1.15,2013-12-11 22:49:00,
2013-12-11 16:50:00,1.1,-8.3,30.64,WSW,242,0.0,0.0,64,0.00,,,0.00,0,Wunderground v.1.15,2013-12-11 22:50:00,
2013-12-11 16:51:00,1.1,-8.3,30.64,WSW,242,0.0,0.0,64,0.00,,,0.00,0,Wunderground v.1.15,2013-12-11 22:51:00,
2013-12-11 16:53:00,1.0,-8.3,30.64,WSW,242,0.0,0.0,64,0.00,,,0.00,0,Wunderground v.1.15,2013-12-11 22:53:00,
2013-12-11 16:54:00,1.0,-8.3,30.64,WSW,242,0.0,0.0,64,0.00,,,0.00,0,Wunderground v.1.15,2013-12-11 22:54:00,
2013-12-11 16:58:00,0.8,-8.5,30.64,WSW,242,0.0,0.0,64,0.00,,,0.00,0,Wunderground v.1.15,2013-12-11 22:58:00,
2013-12-11 16:59:00,0.8,-8.2,30.64,WSW,242,0.0,0.0,65,0.00,,,0.00,0,Wunderground v.1.15,2013-12-11 22:59:00,
2013-12-11 17:00:00,0.8,-8.2,30.64,WSW,242,0.0,0.0,65,0.00,,,0.00,0,Wunderground v.1.15,2013-12-11 23:00:00,
2013-12-11 17:01:00,0.7,-8.3,30.64,WSW,242,0.0,0.0,65,0.00,,,0.00,0,Wunderground v.1.15,2013-12-11 23:01:00,
2013-12-11 17:05:00,0.6,-8.1,30.64,WSW,242,0.0,0.0,66,0.00,,,0.00,0,Wunderground v.1.15,2013-12-11 23:05:00,
2013-12-11 17:06:00,0.5,-8.2,30.64,WSW,242,0.0,0.0,66,0.00,,,0.00,0,Wunderground v.1.15,2013-12-11 23:06:00,
2013-12-11 17:07:00,0.4,-8.3,30.64,WSW,242,0.0,0.0,66,0.00,,,0.00,0,Wunderground v.1.15,2013-12-11 23:07:00,
2013-12-11 17:11:00,0.1,-8.9,30.64,WSW,242,0.0,2.0,65,0.00,,,0.00,0,Wunderground v.1.15,2013-12-11 23:11:00,
2013-12-11 17:12:00,0.1,-8.9,30.64,WSW,242,0.0,2.0,65,0.00,,,0.00,0,Wunderground v.1.15,2013-12-11 23:12:00,
2013-12-11 17:13:00,0.0,-9.0,30.64,WSW,242,0.0,2.0,65,0.00,,,0.00,0,Wunderground v.1.15,2013-12-11 23:13:00,
2013-12-11 17:15:00,-0.2,-9.2,30.64,WSW,242,0.0,2.0,65,0.00,,,0.00,0,Wunderground v.1.15,2013-12-11 23:15:00,
2013-12-11 17:16:00,-0.3,-9.3,30.64,WSW,242,0.0,2.0,65,0.00,,,0.00,0,Wunderground v.1.15,2013-12-11 23:16:00,
2013-12-11 17:18:00,-0.4,-9.1,30.64,WSW,242,0.0,2.0,66,0.00,,,0.00,0,Wunderground v.1.15,2013-12-11 23:18:00,
2013-12-11 17:21:00,-0.7,-9.3,30.64,WSW,242,0.0,1.0,66,0.00,,,0.00,0,Wunderground v.1.15,2013-12-11 23:21:00,
2013-12-11 17:22:00,-0.7,-9.3,30.64,WSW,242,0.0,1.0,66,0.00,,,0.00,0,Wunderground v.1.15,2013-12-11 23:22:00,
2013-12-11 17:24:00,-0.8,-9.4,30.64,WSW,242,0.0,1.0,66,0.00,,,0.00,0,Wunderground v.1.15,2013-12-11 23:24:00,
2013-12-11 17:26:00,-1.0,-9.3,30.64,WSW,242,0.0,1.0,67,0.00,,,0.00,0,Wunderground v.1.15,2013-12-11 23:26:00,
2013-12-11 17:27:00,-1.0,-9.3,30.64,WSW,242,0.0,1.0,67,0.00,,,0.00,0,Wunderground v.1.15,2013-12-11 23:27:00,
2013-12-11 17:28:00,-1.1,-9.4,30.64,WSW,242,0.0,1.0,67,0.00,,,0.00,0,Wunderground v.1.15,2013-12-11 23:28:00,
2013-12-11 17:29:00,-1.1,-9.4,30.64,WSW,242,0.0,1.0,67,0.00,,,0.00,0,Wunderground v.1.15,2013-12-11 23:29:00,
2013-12-11 17:33:00,-1.5,-9.8,30.64,WSW,242,0.0,1.0,67,0.00,,,0.00,0,Wunderground v.1.15,2013-12-11 23:33:00,
2013-12-11 17:34:00,-1.5,-9.8,30.64,WSW,242,0.0,1.0,67,0.00,,,0.00,0,Wunderground v.1.15,2013-12-11 23:34:00,
2013-12-11 17:35:00,-1.6,-9.9,30.64,WSW,242,0.0,1.0,67,0.00,,,0.00,0,Wunderground v.1.15,2013-12-11 23:35:00,
2013-12-11 17:36:00,-1.7,-10.0,30.64,WSW,242,0.0,1.0,67,0.00,,,0.00,0,Wunderground v.1.15,2013-12-11 23:36:00,
2013-12-11 17:38:00,-1.9,-9.9,30.65,WSW,242,0.0,1.0,68,0.00,,,0.00,0,Wunderground v.1.15,2013-12-11 23:38:00,
2013-12-11 17:39:00,-2.0,-10.0,30.64,WSW,242,1.0,2.0,68,0.00,,,0.00,0,Wunderground v.1.15,2013-12-11 23:39:00,
2013-12-11 17:42:00,-2.3,-10.3,30.64,WSW,242,1.0,2.0,68,0.00,,,0.00,0,Wunderground v.1.15,2013-12-11 23:42:00,
2013-12-11 17:43:00,-2.4,-10.4,30.64,WSW,242,1.0,2.0,68,0.00,,,0.00,0,Wunderground v.1.15,2013-12-11 23:43:00,
2013-12-11 17:45:00,-2.5,-10.5,30.64,WSW,242,1.0,2.0,68,0.00,,,0.00,0,Wunderground v.1.15,2013-12-11 23:45:00,
2013-12-11 17:46:00,-2.6,-10.6,30.64,WSW,242,1.0,2.0,68,0.00,,,0.00,0,Wunderground v.1.15,2013-12-11 23:46:00,
2013-12-11 17:47:00,-2.6,-10.6,30.64,WSW,242,1.0,2.0,68,0.00,,,0.00,0,Wunderground v.1.15,2013-12-11 23:47:00,
2013-12-11 17:50:00,-2.9,-10.6,30.64,WSW,242,0.0,0.0,69,0.00,,,0.00,0,Wunderground v.1.15,2013-12-11 23:50:00,
2013-12-11 17:52:00,-3.0,-10.7,30.64,WSW,242,0.0,0.0,69,0.00,,,0.00,0,Wunderground v.1.15,2013-12-11 23:52:00,
2013-12-11 17:54:00,-3.1,-10.7,30.64,WSW,242,0.0,0.0,69,0.00,,,0.00,0,Wunderground v.1.15,2013-12-11 23:54:00,
2013-12-11 17:57:00,-3.4,-11.0,30.65,WSW,242,0.0,2.0,69,0.00,,,0.00,0,Wunderground v.1.15,2013-12-11 23:57:00,
2013-12-11 17:58:00,-3.5,-11.1,30.64,WSW,242,1.0,2.0,69,0.00,,,0.00,0,Wunderground v.1.15,2013-12-11 23:58:00,
2013-12-11 18:00:00,-3.7,-11.3,30.64,WSW,242,1.0,2.0,69,0.00,,,0.00,0,Wunderground v.1.15,2013-12-12 00:00:00,
2013-12-11 18:03:00,-4.0,-11.3,30.65,WSW,242,2.0,2.0,70,0.00,,,0.00,0,Wunderground v.1.15,2013-12-12 00:03:00,
2013-12-11 18:05:00,-4.1,-11.4,30.65,WSW,258,2.0,2.0,70,0.00,,,0.00,0,Wunderground v.1.15,2013-12-12 00:05:00,
2013-12-11 18:07:00,-4.3,-11.6,30.65,West,260,2.0,2.0,70,0.00,,,0.00,0,Wunderground v.1.15,2013-12-12 00:07:00,
2013-12-11 18:09:00,-4.3,-11.3,30.65,West,260,2.0,2.0,71,0.00,,,0.00,0,Wunderground v.1.15,2013-12-12 00:09:00,
2013-12-11 18:11:00,-4.5,-11.5,30.65,West,264,2.0,3.0,71,0.00,,,0.00,0,Wunderground v.1.15,2013-12-12 00:11:00,
2013-12-11 18:13:00,-4.6,-11.6,30.65,West,264,2.0,3.0,71,0.00,,,0.00,0,Wunderground v.1.15,2013-12-12 00:13:00,
2013-12-11 18:15:00,-4.6,-11.6,30.65,West,264,2.0,3.0,71,0.00,,,0.00,0,Wunderground v.1.15,2013-12-12 00:15:00,
2013-12-11 18:16:00,-4.7,-11.7,30.65,West,264,1.0,3.0,71,0.00,,,0.00,0,Wunderground v.1.15,2013-12-12 00:16:00,
2013-12-11 18:18:00,-4.8,-11.8,30.65,West,264,1.0,3.0,71,0.00,,,0.00,0,Wunderground v.1.15,2013-12-12 00:18:00,
2013-12-11 18:21:00,-5.0,-11.7,30.65,West,264,1.0,1.0,72,0.00,,,0.00,0,Wunderground v.1.15,2013-12-12 00:21:00,
2013-12-11 18:24:00,-5.1,-11.8,30.65,West,264,1.0,3.0,72,0.00,,,0.00,0,Wunderground v.1.15,2013-12-12 00:24:00,
2013-12-11 18:27:00,-5.3,-12.0,30.66,West,264,1.0,3.0,72,0.00,,,0.00,0,Wunderground v.1.15,2013-12-12 00:27:00,
2013-12-11 18:28:00,-5.4,-12.1,30.66,West,264,1.0,3.0,72,0.00,,,0.00,0,Wunderground v.1.15,2013-12-12 00:28:00,
2013-12-11 18:29:00,-5.5,-12.2,30.65,West,264,1.0,3.0,72,0.00,,,0.00,0,Wunderground v.1.15,2013-12-12 00:29:00,
2013-12-11 18:30:00,-5.5,-12.2,30.66,West,264,2.0,2.0,72,0.00,,,0.00,0,Wunderground v.1.15,2013-12-12 00:30:00,
2013-12-11 18:32:00,-5.6,-12.3,30.65,West,264,2.0,2.0,72,0.00,,,0.00,0,Wunderground v.1.15,2013-12-12 00:32:00,
2013-12-11 18:33:00,-5.7,-12.4,30.65,West,264,2.0,2.0,72,0.00,,,0.00,0,Wunderground v.1.15,2013-12-12 00:33:00,
2013-12-11 18:35:00,-5.7,-12.4,30.65,West,264,1.0,2.0,72,0.00,,,0.00,0,Wunderground v.1.15,2013-12-12 00:35:00,
2013-12-11 18:38:00,-5.8,-12.2,30.65,West,264,1.0,2.0,73,0.00,,,0.00,0,Wunderground v.1.15,2013-12-12 00:38:00,
2013-12-11 18:39:00,-5.8,-12.2,30.65,West,264,1.0,2.0,73,0.00,,,0.00,0,Wunderground v.1.15,2013-12-12 00:39:00,
2013-12-11 18:41:00,-5.9,-12.3,30.65,West,264,1.0,2.0,73,0.00,,,0.00,0,Wunderground v.1.15,2013-12-12 00:41:00,
2013-12-11 18:44:00,-6.0,-12.4,30.65,West,264,1.0,2.0,73,0.00,,,0.00,0,Wunderground v.1.15,2013-12-12 00:44:00,
2013-12-11 18:46:00,-6.0,-12.4,30.65,West,264,0.0,2.0,73,0.00,,,0.00,0,Wunderground v.1.15,2013-12-12 00:46:00,
2013-12-11 18:48:00,-6.1,-12.5,30.65,West,264,0.0,2.0,73,0.00,,,0.00,0,Wunderground v.1.15,2013-12-12 00:48:00,
2013-12-11 18:50:00,-6.2,-12.6,30.65,West,264,0.0,0.0,73,0.00,,,0.00,0,Wunderground v.1.15,2013-12-12 00:50:00,
2013-12-11 18:53:00,-6.2,-12.3,30.65,West,264,0.0,0.0,74,0.00,,,0.00,0,Wunderground v.1.15,2013-12-12 00:53:00,
2013-12-11 18:54:00,-6.3,-12.4,30.65,West,264,0.0,0.0,74,0.00,,,0.00,0,Wunderground v.1.15,2013-12-12 00:54:00,
2013-12-11 18:55:00,-6.3,-12.4,30.64,West,264,0.0,0.0,74,0.00,,,0.00,0,Wunderground v.1.15,2013-12-12 00:55:00,
2013-12-11 18:59:00,-6.4,-12.5,30.65,West,264,0.0,2.0,74,0.00,,,0.00,0,Wunderground v.1.15,2013-12-12 00:59:00,
2013-12-11 19:02:00,-6.6,-12.7,30.65,West,264,1.0,2.0,74,0.00,,,0.00,0,Wunderground v.1.15,2013-12-12 01:02:00,
2013-12-11 19:03:00,-6.7,-12.8,30.64,West,264,1.0,2.0,74,0.00,,,0.00,0,Wunderground v.1.15,2013-12-12 01:03:00,
2013-12-11 19:07:00,-6.9,-13.0,30.65,West,264,1.0,2.0,74,0.00,,,0.00,0,Wunderground v.1.15,2013-12-12 01:07:00,
2013-12-11 19:08:00,-7.0,-13.1,30.65,West,264,1.0,2.0,74,0.00,,,0.00,0,Wunderground v.1.15,2013-12-12 01:08:00,
2013-12-11 19:10:00,-7.0,-13.1,30.65,West,264,1.0,1.0,74,0.00,,,0.00,0,Wunderground v.1.15,2013-12-12 01:10:00,
2013-12-11 19:11:00,-7.1,-13.2,30.64,West,264,1.0,1.0,74,0.00,,,0.00,0,Wunderground v.1.15,2013-12-12 01:11:00,
2013-12-11 19:15:00,-7.3,-13.4,30.65,West,264,1.0,3.0,74,0.00,,,0.00,0,Wunderground v.1.15,2013-12-12 01:15:00,
2013-12-11 19:16:00,-7.4,-13.5,30.65,West,264,1.0,3.0,74,0.00,,,0.00,0,Wunderground v.1.15,2013-12-12 01:16:00,
2013-12-11 19:17:00,-7.5,-13.6,30.64,West,264,1.0,3.0,74,0.00,,,0.00,0,Wunderground v.1.15,2013-12-12 01:17:00,
2013-12-11 19:19:00,-7.6,-13.7,30.64,West,264,1.0,3.0,74,0.00,,,0.00,0,Wunderground v.1.15,2013-12-12 01:19:00,
2013-12-11 19:20:00,-7.6,-13.7,30.64,West,264,1.0,1.0,74,0.00,,,0.00,0,Wunderground v.1.15,2013-12-12 01:20:00,
2013-12-11 19:21:00,-7.7,-13.8,30.64,West,264,1.0,1.0,74,0.00,,,0.00,0,Wunderground v.1.15,2013-12-12 01:21:00,
2013-12-11 19:22:00,-7.7,-13.8,30.64,West,264,1.0,1.0,74,0.00,,,0.00,0,Wunderground v.1.15,2013-12-12 01:22:00,
2013-12-11 19:23:00,-7.8,-13.6,30.64,West,264,1.0,1.0,75,0.00,,,0.00,0,Wunderground v.1.15,2013-12-12 01:23:00,
2013-12-11 19:26:00,-7.9,-13.7,30.64,West,264,1.0,1.0,75,0.00,,,0.00,0,Wunderground v.1.15,2013-12-12 01:26:00,
2013-12-11 19:27:00,-7.9,-13.7,30.64,West,264,1.0,2.0,75,0.00,,,0.00,0,Wunderground v.1.15,2013-12-12 01:27:00,
2013-12-11 19:28:00,-8.0,-13.8,30.64,West,264,1.0,2.0,75,0.00,,,0.00,0,Wunderground v.1.15,2013-12-12 01:28:00,
2013-12-11 19:29:00,-8.0,-13.8,30.64,West,264,1.0,2.0,75,0.00,,,0.00,0,Wunderground v.1.15,2013-12-12 01:29:00,
2013-12-11 19:31:00,-8.1,-13.9,30.64,West,264,1.0,2.0,75,0.00,,,0.00,0,Wunderground v.1.15,2013-12-12 01:31:00,
2013-12-11 19:34:00,-8.2,-14.0,30.64,West,264,1.0,2.0,75,0.00,,,0.00,0,Wunderground v.1.15,2013-12-12 01:34:00,
2013-12-11 19:38:00,-8.3,-14.1,30.64,West,264,1.0,2.0,75,0.00,,,0.00,0,Wunderground v.1.15,2013-12-12 01:38:00,
2013-12-11 19:40:00,-8.4,-14.2,30.64,West,264,0.0,0.0,75,0.00,,,0.00,0,Wunderground v.1.15,2013-12-12 01:40:00,
2013-12-11 19:42:00,-8.4,-14.2,30.64,West,264,0.0,0.0,75,0.00,,,0.00,0,Wunderground v.1.15,2013-12-12 01:42:00,
2013-12-11 19:44:00,-8.6,-14.4,30.64,West,264,0.0,0.0,75,0.00,,,0.00,0,Wunderground v.1.15,2013-12-12 01:44:00,
2013-12-11 19:45:00,-8.6,-14.4,30.64,West,264,0.0,0.0,75,0.00,,,0.00,0,Wunderground v.1.15,2013-12-12 01:45:00,
2013-12-11 19:46:00,-8.6,-14.4,30.63,West,264,0.0,1.0,75,0.00,,,0.00,0,Wunderground v.1.15,2013-12-12 01:46:00,
2013-12-11 19:49:00,-8.8,-14.6,30.63,West,264,0.0,1.0,75,0.00,,,0.00,0,Wunderground v.1.15,2013-12-12 01:49:00,
2013-12-11 19:51:00,-8.9,-14.4,30.63,West,264,0.0,0.0,76,0.00,,,0.00,0,Wunderground v.1.15,2013-12-12 01:51:00,
2013-12-11 19:52:00,-8.9,-14.4,30.63,West,264,0.0,1.0,76,0.00,,,0.00,0,Wunderground v.1.15,2013-12-12 01:52:00,
2013-12-11 19:53:00,-8.9,-14.4,30.64,West,264,0.0,1.0,76,0.00,,,0.00,0,Wunderground v.1.15,2013-12-12 01:53:00,
2013-12-11 19:57:00,-9.1,-14.6,30.64,West,264,0.0,1.0,76,0.00,,,0.00,0,Wunderground v.1.15,2013-12-12 01:57:00,
2013-12-11 19:58:00,-9.1,-14.6,30.64,West,264,0.0,2.0,76,0.00,,,0.00,0,Wunderground v.1.15,2013-12-12 01:58:00,
2013-12-11 20:03:00,-9.3,-14.8,30.64,West,264,1.0,1.0,76,0.00,,,0.00,0,Wunderground v.1.15,2013-12-12 02:03:00,
2013-12-11 20:05:00,-9.4,-14.9,30.64,West,264,1.0,1.0,76,0.00,,,0.00,0,Wunderground v.1.15,2013-12-12 02:05:00,
2013-12-11 20:07:00,-9.5,-15.0,30.64,West,264,1.0,1.0,76,0.00,,,0.00,0,Wunderground v.1.15,2013-12-12 02:07:00,
2013-12-11 20:09:00,-9.6,-15.1,30.64,West,264,1.0,1.0,76,0.00,,,0.00,0,Wunderground v.1.15,2013-12-12 02:09:00,
2013-12-11 20:11:00,-9.7,-15.2,30.65,West,264,1.0,1.0,76,0.00,,,0.00,0,Wunderground v.1.15,2013-12-12 02:11:00,
2013-12-11 20:13:00,-9.8,-15.3,30.65,West,264,1.0,3.0,76,0.00,,,0.00,0,Wunderground v.1.15,2013-12-12 02:13:00,
2013-12-11 20:15:00,-9.9,-15.4,30.64,West,264,1.0,3.0,76,0.00,,,0.00,0,Wunderground v.1.15,2013-12-12 02:15:00,
2013-12-11 20:16:00,-9.9,-15.4,30.65,West,264,1.0,3.0,76,0.00,,,0.00,0,Wunderground v.1.15,2013-12-12 02:16:00,
2013-12-11 20:17:00,-10.0,-15.2,30.64,West,264,1.0,3.0,77,0.00,,,0.00,0,Wunderground v.1.15,2013-12-12 02:17:00,
2013-12-11 20:19:00,-10.0,-15.2,30.64,West,264,2.0,3.0,77,0.00,,,0.00,0,Wunderground v.1.15,2013-12-12 02:19:00,
2013-12-11 20:21:00,-10.1,-15.3,30.64,West,264,2.0,2.0,77,0.00,,,0.00,0,Wunderground v.1.15,2013-12-12 02:21:00,
2013-12-11 20:22:00,-10.1,-15.3,30.64,West,264,2.0,3.0,77,0.00,,,0.00,0,Wunderground v.1.15,2013-12-12 02:22:00,
2013-12-11 20:23:00,-10.1,-15.3,30.64,West,264,2.0,3.0,77,0.00,,,0.00,0,Wunderground v.1.15,2013-12-12 02:23:00,
2013-12-11 20:24:00,-10.2,-15.4,30.65,West,264,2.0,3.0,77,0.00,,,0.00,0,Wunderground v.1.15,2013-12-12 02:24:00,
2013-12-11 20:27:00,-10.2,-15.4,30.64,West,264,2.0,3.0,77,0.00,,,0.00,0,Wunderground v.1.15,2013-12-12 02:27:00,
2013-12-11 20:30:00,-10.2,-15.4,30.65,West,264,1.0,1.0,77,0.00,,,0.00,0,Wunderground v.1.15,2013-12-12 02:30:00,
2013-12-11 20:31:00,-10.3,-15.5,30.65,West,264,1.0,1.0,77,0.00,,,0.00,0,Wunderground v.1.15,2013-12-12 02:31:00,
2013-12-11 20:33:00,-10.3,-15.3,30.64,West,264,1.0,1.0,78,0.00,,,0.00,0,Wunderground v.1.15,2013-12-12 02:33:00,
2013-12-11 20:36:00,-10.3,-15.3,30.65,West,264,0.0,1.0,78,0.00,,,0.00,0,Wunderground v.1.15,2013-12-12 02:36:00,
2013-12-11 20:37:00,-10.3,-15.3,30.65,West,264,0.0,1.0,78,0.00,,,0.00,0,Wunderground v.1.15,2013-12-12 02:37:00,
2013-12-11 20:40:00,-10.3,-15.3,30.65,West,264,0.0,0.0,78,0.00,,,0.00,0,Wunderground v.1.15,2013-12-12 02:40:00,
2013-12-11 20:41:00,-10.4,-15.4,30.65,West,264,0.0,1.0,78,0.00,,,0.00,0,Wunderground v.1.15,2013-12-12 02:41:00,
2013-12-11 20:44:00,-10.5,-15.5,30.65,West,264,0.0,1.0,78,0.00,,,0.00,0,Wunderground v.1.15,2013-12-12 02:44:00,
2013-12-11 20:45:00,-10.5,-15.5,30.65,West,264,0.0,1.0,78,0.00,,,0.00,0,Wunderground v.1.15,2013-12-12 02:45:00,
2013-12-11 20:46:00,-10.5,-15.5,30.65,West,264,0.0,1.0,78,0.00,,,0.00,0,Wunderground v.1.15,2013-12-12 02:46:00,
2013-12-11 20:48:00,-10.6,-15.6,30.65,West,264,0.0,1.0,78,0.00,,,0.00,0,Wunderground v.1.15,2013-12-12 02:48:00,
2013-12-11 20:51:00,-10.7,-15.7,30.65,West,264,0.0,1.0,78,0.00,,,0.00,0,Wunderground v.1.15,2013-12-12 02:51:00,
2013-12-11 20:55:00,-10.8,-15.8,30.64,West,264,0.0,1.0,78,0.00,,,0.00,0,Wunderground v.1.15,2013-12-12 02:55:00,
2013-12-11 20:58:00,-10.9,-15.9,30.64,West,264,0.0,1.0,78,0.00,,,0.00,0,Wunderground v.1.15,2013-12-12 02:58:00,
2013-12-11 21:00:00,-10.9,-15.9,30.64,West,264,0.0,0.0,78,0.00,,,0.00,0,Wunderground v.1.15,2013-12-12 03:00:00,
2013-12-11 21:01:00,-10.9,-15.9,30.64,West,264,0.0,0.0,78,0.00,,,0.00,0,Wunderground v.1.15,2013-12-12 03:01:00,
2013-12-11 21:02:00,-10.9,-15.9,30.64,West,264,0.0,0.0,78,0.00,,,0.00,0,Wunderground v.1.15,2013-12-12 03:02:00,
2013-12-11 21:03:00,-11.0,-16.0,30.64,West,264,0.0,0.0,78,0.00,,,0.00,0,Wunderground v.1.15,2013-12-12 03:03:00,
2013-12-11 21:07:00,-11.1,-16.1,30.64,West,264,0.0,0.0,78,0.00,,,0.00,0,Wunderground v.1.15,2013-12-12 03:07:00,
2013-12-11 21:08:00,-11.1,-16.1,30.64,West,264,0.0,0.0,78,0.00,,,0.00,0,Wunderground v.1.15,2013-12-12 03:08:00,
2013-12-11 21:10:00,-11.1,-16.1,30.64,West,264,0.0,0.0,78,0.00,,,0.00,0,Wunderground v.1.15,2013-12-12 03:10:00,
2013-12-11 21:12:00,-11.1,-16.1,30.64,West,264,0.0,0.0,78,0.00,,,0.00,0,Wunderground v.1.15,2013-12-12 03:12:00,
2013-12-11 21:13:00,-11.1,-16.1,30.65,West,264,0.0,0.0,78,0.00,,,0.00,0,Wunderground v.1.15,2013-12-12 03:13:00,
2013-12-11 21:17:00,-11.1,-16.1,30.64,West,264,0.0,0.0,78,0.00,,,0.00,0,Wunderground v.1.15,2013-12-12 03:17:00,
2013-12-11 21:18:00,-11.1,-15.8,30.64,West,264,0.0,0.0,79,0.00,,,0.00,0,Wunderground v.1.15,2013-12-12 03:18:00,
2013-12-11 21:19:00,-11.1,-15.8,30.64,West,264,0.0,0.0,79,0.00,,,0.00,0,Wunderground v.1.15,2013-12-12 03:19:00,
2013-12-11 21:23:00,-11.0,-15.7,30.64,West,264,0.0,1.0,79,0.00,,,0.00,0,Wunderground v.1.15,2013-12-12 03:23:00,
2013-12-11 21:25:00,-11.0,-15.7,30.64,West,264,0.0,1.0,79,0.00,,,0.00,0,Wunderground v.1.15,2013-12-12 03:25:00,
2013-12-11 21:26:00,-11.0,-15.7,30.64,West,264,0.0,1.0,79,0.00,,,0.00,0,Wunderground v.1.15,2013-12-12 03:26:00,
2013-12-11 21:27:00,-11.0,-15.7,30.64,West,264,0.0,1.0,79,0.00,,,0.00,0,Wunderground v.1.15,2013-12-12 03:27:00,
2013-12-11 21:29:00,-10.9,-15.6,30.64,West,264,0.0,1.0,79,0.00,,,0.00,0,Wunderground v.1.15,2013-12-12 03:29:00,
2013-12-11 21:30:00,-10.9,-15.6,30.64,West,264,0.0,0.0,79,0.00,,,0.00,0,Wunderground v.1.15,2013-12-12 03:30:00,
2013-12-11 21:32:00,-10.9,-15.6,30.64,West,264,0.0,0.0,79,0.00,,,0.00,0,Wunderground v.1.15,2013-12-12 03:32:00,
2013-12-11 21:33:00,-10.9,-15.6,30.63,West,264,0.0,0.0,79,0.00,,,0.00,0,Wunderground v.1.15,2013-12-12 03:33:00,
2013-12-11 21:38:00,-10.8,-15.3,30.63,West,264,0.0,2.0,80,0.00,,,0.00,0,Wunderground v.1.15,2013-12-12 03:38:00,
2013-12-11 21:39:00,-10.8,-15.3,30.63,West,264,0.0,2.0,80,0.00,,,0.00,0,Wunderground v.1.15,2013-12-12 03:39:00,
2013-12-11 21:40:00,-10.7,-15.2,30.63,West,264,0.0,0.0,80,0.00,,,0.00,0,Wunderground v.1.15,2013-12-12 03:40:00,
2013-12-11 21:41:00,-10.7,-15.2,30.63,West,264,0.0,0.0,80,0.00,,,0.00,0,Wunderground v.1.15,2013-12-12 03:41:00,
2013-12-11 21:44:00,-10.6,-15.1,30.63,West,264,0.0,0.0,80,0.00,,,0.00,0,Wunderground v.1.15,2013-12-12 03:44:00,
2013-12-11 21:45:00,-10.6,-15.1,30.63,West,264,0.0,0.0,80,0.00,,,0.00,0,Wunderground v.1.15,2013-12-12 03:45:00,
2013-12-11 21:47:00,-10.6,-15.1,30.63,West,264,0.0,0.0,80,0.00,,,0.00,0,Wunderground v.1.15,2013-12-12 03:47:00,
2013-12-11 21:50:00,-10.5,-15.0,30.63,West,264,0.0,0.0,80,0.00,,,0.00,0,Wunderground v.1.15,2013-12-12 03:50:00,
2013-12-11 21:51:00,-10.5,-15.0,30.63,West,264,0.0,0.0,80,0.00,,,0.00,0,Wunderground v.1.15,2013-12-12 03:51:00,
2013-12-11 21:53:00,-10.5,-15.0,30.62,West,264,0.0,0.0,80,0.00,,,0.00,0,Wunderground v.1.15,2013-12-12 03:53:00,
2013-12-11 21:54:00,-10.5,-15.0,30.62,West,264,0.0,0.0,80,0.00,,,0.00,0,Wunderground v.1.15,2013-12-12 03:54:00,
2013-12-11 21:58:00,-10.4,-14.9,30.62,West,264,0.0,0.0,80,0.00,,,0.00,0,Wunderground v.1.15,2013-12-12 03:58:00,
2013-12-11 21:59:00,-10.4,-14.9,30.62,West,264,0.0,0.0,80,0.00,,,0.00,0,Wunderground v.1.15,2013-12-12 03:59:00,
2013-12-11 22:00:00,-10.4,-14.9,30.62,West,264,0.0,0.0,80,0.00,,,0.00,0,Wunderground v.1.15,2013-12-12 04:00:00,
2013-12-11 22:04:00,-10.4,-14.6,30.62,West,264,0.0,0.0,81,0.00,,,0.00,0,Wunderground v.1.15,2013-12-12 04:04:00,
2013-12-11 22:06:00,-10.3,-14.5,30.62,West,264,0.0,0.0,81,0.00,,,0.00,0,Wunderground v.1.15,2013-12-12 04:06:00,
2013-12-11 22:09:00,-10.3,-14.5,30.62,West,264,0.0,0.0,81,0.00,,,0.00,0,Wunderground v.1.15,2013-12-12 04:09:00,
2013-12-11 22:11:00,-10.2,-14.4,30.62,West,264,0.0,0.0,81,0.00,,,0.00,0,Wunderground v.1.15,2013-12-12 04:11:00,
2013-12-11 22:13:00,-10.3,-14.5,30.62,West,264,0.0,0.0,81,0.00,,,0.00,0,Wunderground v.1.15,2013-12-12 04:13:00,
2013-12-11 22:14:00,-10.3,-14.5,30.62,West,264,0.0,0.0,81,0.00,,,0.00,0,Wunderground v.1.15,2013-12-12 04:14:00,
2013-12-11 22:15:00,-10.2,-14.4,30.62,West,264,0.0,0.0,81,0.00,,,0.00,0,Wunderground v.1.15,2013-12-12 04:15:00,
2013-12-11 22:16:00,-10.2,-14.4,30.62,West,264,0.0,0.0,81,0.00,,,0.00,0,Wunderground v.1.15,2013-12-12 04:16:00,
2013-12-11 22:18:00,-10.2,-14.4,30.62,West,264,0.0,0.0,81,0.00,,,0.00,0,Wunderground v.1.15,2013-12-12 04:18:00,
2013-12-11 22:19:00,-10.1,-14.3,30.62,West,264,0.0,0.0,81,0.00,,,0.00,0,Wunderground v.1.15,2013-12-12 04:19:00,
2013-12-11 22:20:00,-10.1,-14.3,30.62,West,264,0.0,0.0,81,0.00,,,0.00,0,Wunderground v.1.15,2013-12-12 04:20:00,
2013-12-11 22:21:00,-10.1,-14.3,30.61,West,264,0.0,0.0,81,0.00,,,0.00,0,Wunderground v.1.15,2013-12-12 04:21:00,
2013-12-11 22:24:00,-10.0,-14.2,30.62,West,264,0.0,0.0,81,0.00,,,0.00,0,Wunderground v.1.15,2013-12-12 04:24:00,
2013-12-11 22:25:00,-10.0,-14.2,30.62,West,264,0.0,0.0,81,0.00,,,0.00,0,Wunderground v.1.15,2013-12-12 04:25:00,
2013-12-11 22:26:00,-9.9,-14.1,30.62,West,264,0.0,0.0,81,0.00,,,0.00,0,Wunderground v.1.15,2013-12-12 04:26:00,
2013-12-11 22:27:00,-9.9,-14.1,30.62,West,264,0.0,0.0,81,0.00,,,0.00,0,Wunderground v.1.15,2013-12-12 04:27:00,
2013-12-11 22:30:00,-9.8,-14.0,30.62,West,264,0.0,0.0,81,0.00,,,0.00,0,Wunderground v.1.15,2013-12-12 04:30:00,
2013-12-11 22:31:00,-9.8,-14.0,30.62,West,264,0.0,0.0,81,0.00,,,0.00,0,Wunderground v.1.15,2013-12-12 04:31:00,
2013-12-11 22:32:00,-9.8,-14.0,30.62,West,264,0.0,1.0,81,0.00,,,0.00,0,Wunderground v.1.15,2013-12-12 04:32:00,
2013-12-11 22:33:00,-9.7,-13.9,30.62,West,264,0.0,1.0,81,0.00,,,0.00,0,Wunderground v.1.15,2013-12-12 04:33:00,
2013-12-11 22:36:00,-9.6,-13.8,30.61,West,264,0.0,1.0,81,0.00,,,0.00,0,Wunderground v.1.15,2013-12-12 04:36:00,
2013-12-11 22:37:00,-9.5,-13.5,30.61,West,264,0.0,1.0,82,0.00,,,0.00,0,Wunderground v.1.15,2013-12-12 04:37:00,
2013-12-11 22:40:00,-9.1,-13.1,30.61,West,264,1.0,1.0,82,0.00,,,0.00,0,Wunderground v.1.15,2013-12-12 04:40:00,
2013-12-11 22:41:00,-9.0,-13.0,30.61,West,264,1.0,1.0,82,0.00,,,0.00,0,Wunderground v.1.15,2013-12-12 04:41:00,
2013-12-11 22:43:00,-8.9,-12.9,30.61,West,264,1.0,1.0,82,0.00,,,0.00,0,Wunderground v.1.15,2013-12-12 04:43:00,
2013-12-11 22:46:00,-8.7,-12.7,30.61,West,264,1.0,1.0,82,0.00,,,0.00,0,Wunderground v.1.15,2013-12-12 04:46:00,
2013-12-11 22:48:00,-8.6,-12.6,30.61,West,264,1.0,1.0,82,0.00,,,0.00,0,Wunderground v.1.15,2013-12-12 04:48:00,
2013-12-11 22:49:00,-8.5,-12.5,30.61,West,264,0.0,1.0,82,0.00,,,0.00,0,Wunderground v.1.15,2013-12-12 04:49:00,
2013-12-11 22:52:00,-8.3,-12.3,30.61,West,264,0.0,0.0,82,0.00,,,0.00,0,Wunderground v.1.15,2013-12-12 04:52:00,
2013-12-11 22:54:00,-8.2,-12.2,30.61,West,264,0.0,0.0,82,0.00,,,0.00,0,Wunderground v.1.15,2013-12-12 04:54:00,
2013-12-11 22:57:00,-8.1,-11.9,30.61,West,264,0.0,0.0,83,0.00,,,0.00,0,Wunderground v.1.15,2013-12-12 04:57:00,
2013-12-11 22:59:00,-8.0,-11.8,30.61,West,264,0.0,0.0,83,0.00,,,0.00,0,Wunderground v.1.15,2013-12-12 04:59:00,
2013-12-11 23:00:00,-8.0,-11.8,30.61,West,264,0.0,0.0,83,0.00,,,0.00,0,Wunderground v.1.15,2013-12-12 05:00:00,
2013-12-11 23:01:00,-7.9,-11.7,30.61,West,264,0.0,0.0,83,0.00,,,0.00,0,Wunderground v.1.15,2013-12-12 05:01:00,
2013-12-11 23:02:00,-7.8,-11.6,30.61,West,264,0.0,0.0,83,0.00,,,0.00,0,Wunderground v.1.15,2013-12-12 05:02:00,
2013-12-11 23:04:00,-7.5,-11.3,30.60,West,264,0.0,2.0,83,0.00,,,0.00,0,Wunderground v.1.15,2013-12-12 05:04:00,
2013-12-11 23:06:00,-7.2,-11.0,30.60,WSW,244,0.0,3.0,83,0.00,,,0.00,0,Wunderground v.1.15,2013-12-12 05:06:00,
2013-12-11 23:09:00,-7.0,-10.8,30.60,SSE,162,1.0,3.0,83,0.00,,,0.00,0,Wunderground v.1.15,2013-12-12 05:09:00,
2013-12-11 23:10:00,-6.9,-10.7,30.60,SSE,162,1.0,1.0,83,0.00,,,0.00,0,Wunderground v.1.15,2013-12-12 05:10:00,
2013-12-11 23:11:00,-6.8,-10.6,30.60,SSE,162,1.0,2.0,83,0.00,,,0.00,0,Wunderground v.1.15,2013-12-12 05:11:00,
2013-12-11 23:12:00,-6.7,-10.5,30.60,SSE,162,1.0,2.0,83,0.00,,,0.00,0,Wunderground v.1.15,2013-12-12 05:12:00,
2013-12-11 23:14:00,-6.7,-10.5,30.60,SSE,162,1.0,2.0,83,0.00,,,0.00,0,Wunderground v.1.15,2013-12-12 05:14:00,
2013-12-11 23:15:00,-6.6,-10.4,30.60,SSE,162,2.0,4.0,83,0.00,,,0.00,0,Wunderground v.1.15,2013-12-12 05:15:00,
2013-12-11 23:17:00,-6.4,-10.2,30.60,SSE,162,2.0,4.0,83,0.00,,,0.00,0,Wunderground v.1.15,2013-12-12 05:17:00,
2013-12-11 23:18:00,-6.3,-10.1,30.60,SSE,162,2.0,4.0,83,0.00,,,0.00,0,Wunderground v.1.15,2013-12-12 05:18:00,
2013-12-11 23:21:00,-6.0,-9.8,30.60,SSE,162,2.0,2.0,83,0.00,,,0.00,0,Wunderground v.1.15,2013-12-12 05:21:00,
2013-12-11 23:22:00,-5.9,-9.7,30.60,SSE,161,2.0,2.0,83,0.00,,,0.00,0,Wunderground v.1.15,2013-12-12 05:22:00,
2013-12-11 23:24:00,-5.8,-9.6,30.60,SE,127,3.0,5.0,83,0.00,,,0.00,0,Wunderground v.1.15,2013-12-12 05:24:00,
2013-12-11 23:27:00,-5.6,-9.4,30.60,SSE,159,3.0,5.0,83,0.00,,,0.00,0,Wunderground v.1.15,2013-12-12 05:27:00,
2013-12-11 23:28:00,-5.5,-9.3,30.60,SSE,158,2.0,5.0,83,0.00,,,0.00,0,Wunderground v.1.15,2013-12-12 05:28:00,
2013-12-11 23:29:00,-5.5,-9.3,30.60,SSE,153,2.0,6.0,83,0.00,,,0.00,0,Wunderground v.1.15,2013-12-12 05:29:00,
2013-12-11 23:30:00,-5.4,-9.2,30.60,SSE,150,3.0,3.0,83,0.00,,,0.00,0,Wunderground v.1.15,2013-12-12 05:30:00,
2013-12-11 23:32:00,-5.3,-9.1,30.59,SSE,150,3.0,4.0,83,0.00,,,0.00,0,Wunderground v.1.15,2013-12-12 05:32:00,
2013-12-11 23:33:00,-5.2,-9.0,30.59,SE,146,3.0,4.0,83,0.00,,,0.00,0,Wunderground v.1.15,2013-12-12 05:33:00,
2013-12-11 23:34:00,-5.2,-9.0,30.59,SE,146,3.0,4.0,83,0.00,,,0.00,0,Wunderground v.1.15,2013-12-12 05:34:00,
2013-12-11 23:36:00,-5.1,-8.9,30.59,SE,146,3.0,4.0,83,0.00,,,0.00,0,Wunderground v.1.15,2013-12-12 05:36:00,
2013-12-11 23:38:00,-5.0,-8.8,30.59,SE,146,3.0,4.0,83,0.00,,,0.00,0,Wunderground v.1.15,2013-12-12 05:38:00,
2013-12-11 23:39:00,-4.9,-8.7,30.59,SE,146,3.0,4.0,83,0.00,,,0.00,0,Wunderground v.1.15,2013-12-12 05:39:00,
2013-12-11 23:41:00,-4.9,-9.0,30.59,SE,146,3.0,3.0,82,0.00,,,0.00,0,Wunderground v.1.15,2013-12-12 05:41:00,
2013-12-11 23:43:00,-4.8,-8.9,30.59,SE,146,2.0,3.0,82,0.00,,,0.00,0,Wunderground v.1.15,2013-12-12 05:43:00,
2013-12-11 23:45:00,-4.8,-8.9,30.59,SE,146,2.0,3.0,82,0.00,,,0.00,0,Wunderground v.1.15,2013-12-12 05:45:00,
2013-12-11 23:46:00,-4.7,-8.8,30.59,SE,146,2.0,3.0,82,0.00,,,0.00,0,Wunderground v.1.15,2013-12-12 05:46:00,
2013-12-11 23:48:00,-4.6,-8.7,30.59,SE,146,2.0,3.0,82,0.00,,,0.00,0,Wunderground v.1.15,2013-12-12 05:48:00,
2013-12-11 23:49:00,-4.6,-8.7,30.59,SE,146,1.0,5.0,82,0.00,,,0.00,0,Wunderground v.1.15,2013-12-12 05:49:00,
2013-12-11 23:51:00,-4.5,-8.6,30.59,SE,146,2.0,4.0,82,0.00,,,0.00,0,Wunderground v.1.15,2013-12-12 05:51:00,
2013-12-11 23:52:00,-4.5,-8.6,30.59,SE,146,2.0,4.0,82,0.00,,,0.00,0,Wunderground v.1.15,2013-12-12 05:52:00,
2013-12-11 23:54:00,-4.5,-8.6,30.60,SE,146,2.0,4.0,82,0.00,,,0.00,0,Wunderground v.1.15,2013-12-12 05:54:00,
2013-12-11 23:57:00,-4.4,-8.5,30.60,SE,146,1.0,4.0,82,0.00,,,0.00,0,Wunderground v.1.15,2013-12-12 05:57:00,
2013-12-11 23:59:00,-4.4,-8.5,30.60,SE,146,1.0,4.0,82,0.00,,,0.00,0,Wunderground v.1.15,2013-12-12 05:59:00,